GFSGL_sfc_30mbdewp_075.txt.gz
Dewpoint
53 54 55 55 55 55 54 55 55 56 55 55 55 56 56 56 56 56 56 56 55 54 54 53 53 54 54 53 53 52 50 50 48 47 47 48 52 52 52 52 52 52 51
53 53 53 55 55 54 54 54 55 54 55 54 54 55 55 55 56 56 55 55 55 55 54 54 54 54 54 54 53 51 52 51 50 48 48 48 51 52 53 53 52 51 51
54 54 54 53 53 53 54 53 54 54 54 54 53 53 53 54 54 55 55 55 55 54 54 54 54 54 53 52 52 51 51 51 51 50 49 50 50 52 53 53 53 53 52
54 53 53 54 54 54 54 54 53 53 53 53 53 53 53 53 53 53 54 54 54 53 53 53 53 53 53 52 52 52 51 51 51 52 52 52 51 51 52 52 52 53 51
43 43 44 46 47 50 52 54 55 54 53 53 53 53 53 53 54 53 53 53 53 53 53 53 53 53 52 52 51 51 52 51 51 51 50 50 50 50 51 51 51 51 51
35 35 36 38 40 41 43 45 46 46 48 52 53 52 52 48 37 40 47 53 53 53 52 53 53 52 52 50 49 49 50 50 50 50 49 49 49 50 50 50 50 50 49
32 31 32 34 35 36 37 38 40 42 43 44 43 43 40 34 33 35 36 43 49 51 52 52 52 52 52 52 50 48 48 48 48 49 49 49 49 49 50 49 49 49 49
28 28 30 32 32 33 34 36 37 40 41 38 36 34 35 32 32 33 34 40 44 47 50 51 51 50 51 50 51 51 50 49 47 47 48 49 40 34 37 43 46 47 36
26 27 29 29 30 31 32 34 36 37 36 32 31 30 30 30 30 31 33 37 41 43 35 32 32 34 35 36 41 48 50 39 31 30 30 29 28 28 29 36 37 38 34
24 26 27 28 29 29 30 32 32 31 30 29 28 28 28 28 28 29 32 36 36 33 29 28 29 31 31 32 36 38 37 30 27 25 24 24 24 24 24 25 29 34 32
23 24 25 25 27 28 28 29 29 28 28 27 27 27 26 27 26 27 27 28 27 25 24 24 26 26 27 28 27 27 26 25 24 23 22 21 21 21 21 21 21 22 21
22 23 23 24 25 25 26 26 26 26 26 26 25 25 25 25 25 25 24 24 23 22 21 22 23 23 23 23 23 23 22 21 20 18 17 17 18 19 19 19 20 20 20
22 22 22 22 22 23 24 23 23 23 23 22 22 22 23 24 24 23 22 22 22 23 22 21 20 20 20 21 20 19 19 19 18 16 16 17 18 19 21 21 20 20 18
21 21 21 21 21 21 22 22 22 21 21 21 21 22 22 23 24 23 23 23 22 22 20 19 19 18 18 18 19 19 19 18 17 16 16 17 18 17 16 17 16 15 10
20 20 20 20 20 20 21 21 21 23 22 21 21 21 21 21 23 23 23 21 20 18 19 18 18 17 17 16 16 15 16 16 16 16 15 14 12 11 11 11 10 9 8
19 19 19 19 19 18 17 18 20 20 21 21 21 21 22 22 21 20 19 17 16 16 16 16 15 15 14 13 13 12 11 10 11 10 10 10 9 9 9 10 9 7 5
19 19 18 18 17 17 16 15 15 15 16 17 18 19 19 19 18 17 15 15 14 14 13 12 11 11 9 8 7 7 7 7 7 7 7 8 8 7 6 5 6 4 3
17 16 17 16 16 15 15 14 13 13 13 12 12 14 15 15 15 14 12 12 11 10 10 9 9 8 7 5 5 4 4 5 5 5 5 6 6 5 4 3 2 3 2
17 16 15 15 14 13 13 12 11 9 9 9 9 8 8 9 9 9 9 9 8 7 6 6 7 6 5 5 5 5 4 4 4 4 3 3 4 3 2 1 1 1 1
15 14 14 14 13 12 11 9 8 7 6 5 5 6 6 6 6 5 6 6 5 5 5 4 4 4 4 4 4 4 2 1 1 1 2 2 3 2 1 1 1 1 0
15 13 12 12 12 11 10 8 7 6 4 3 3 4 3 3 3 2 2 3 3 2 3 3 3 4 3 2 1 1 -1 -0 -1 -1 -1 -0 1 0 -0 0 1 0 -1
13 12 11 10 9 8 7 6 5 4 3 2 2 2 2 3 2 1 1 2 2 1 1 1 1 1 0 0 -0 -0 -1 -2 -2 -2 -2 -2 -1 -1 -0 -0 -0 -0 -1
10 10 8 8 7 6 6 5 5 4 3 3 2 1 1 2 1 1 1 2 1 1 1 1 1 -0 -1 -1 -1 -1 -2 -3 -3 -4 -3 -3 -2 -1 -1 -1 -1 -1 -1
9 9 7 7 7 5 6 5 4 2 3 3 2 1 1 1 1 0 0 1 1 1 1 1 -0 -1 -2 -1 -1 -2 -3 -4 -4 -5 -5 -4 -3 -3 -2 -2 -2 -2 -1
7 6 6 5 5 4 4 4 3 3 3 2 2 1 -0 -1 -1 -2 -2 -2 -1 -0 -1 -1 -1 -1 -1 -2 -2 -3 -4 -5 -5 -6 -4 -4 -5 -4 -4 -3 -3 -2 -2
4 4 4 4 3 3 3 2 2 1 1 1 0 -0 -1 -2 -3 -3 -3 -3 -2 -2 -2 -2 -2 -2 -2 -2 -2 -3 -4 -6 -6 -7 -5 -4 -4 -4 -3 -3 -3 -3 -3

GFSGL_sfc_30mbdewp_078.txt.gz
Dewpoint
54 55 54 53 54 55 55 54 55 56 57 56 56 57 57 57 56 56 55 53 53 53 53 53 52 53 53 53 53 52 52 51 49 49 49 48 49 49 49 50 51 51 51
54 54 54 54 54 55 54 55 55 55 56 56 56 56 56 56 57 56 56 55 54 52 52 53 53 54 54 54 54 53 53 52 51 49 50 50 50 50 51 52 52 50 51
53 53 53 53 54 54 54 54 55 55 55 55 55 55 56 56 56 56 56 56 56 56 55 53 53 52 51 52 53 52 52 52 52 51 50 51 50 51 50 51 52 53 53
53 52 51 53 54 54 54 54 54 54 54 54 54 54 54 54 55 56 55 55 56 55 55 55 55 54 54 53 54 54 53 53 53 52 51 50 50 50 50 49 50 52 52
42 43 43 44 46 47 49 49 53 54 54 54 54 54 54 48 38 43 53 54 55 54 54 55 54 54 54 54 54 54 54 53 52 51 51 51 51 50 50 51 51 51 52
36 37 38 39 40 41 42 43 45 46 47 45 45 43 40 36 34 35 38 48 52 53 53 53 54 53 52 51 51 51 51 52 52 52 51 50 50 50 50 50 50 50 49
33 34 35 36 36 37 39 40 42 42 40 38 38 38 34 32 32 33 33 38 44 48 50 48 50 52 51 51 52 49 49 48 47 49 50 51 51 51 48 50 50 49 49
30 30 32 33 35 36 38 39 40 37 35 34 33 33 32 30 30 31 33 39 43 37 32 33 35 36 35 35 39 45 50 36 34 38 36 31 29 29 31 37 39 39 38
27 28 29 31 32 34 35 35 35 34 32 31 30 30 31 29 29 30 37 42 35 31 29 29 30 30 30 31 38 40 38 29 30 29 27 26 26 26 26 33 34 36 37
26 26 28 29 30 31 32 32 32 31 30 29 29 29 28 28 27 28 32 33 30 28 26 26 26 27 27 28 32 35 27 25 25 23 23 22 22 22 22 22 23 28 30
25 26 27 28 29 29 30 30 30 29 29 29 28 27 26 26 26 26 27 28 26 25 24 24 25 25 25 25 25 25 23 23 22 21 20 21 21 21 21 22 22 21 21
24 24 25 26 26 27 28 27 28 27 27 26 26 26 26 25 24 24 24 25 26 26 25 24 24 23 23 23 24 22 22 22 21 20 20 20 21 22 23 23 22 21 21
23 23 23 23 24 24 24 25 25 25 25 25 25 25 25 26 26 24 23 23 23 24 23 22 22 22 23 23 21 23 25 25 24 23 22 21 22 22 23 24 21 19 15
22 21 22 22 22 22 22 23 24 24 24 24 24 24 24 24 25 26 25 25 25 24 24 23 23 23 21 21 22 22 21 21 21 21 20 20 20 18 16 16 15 15 11
21 22 21 21 21 21 22 22 21 23 24 23 23 23 23 21 22 21 21 23 23 22 23 23 22 21 20 20 19 17 17 18 17 17 17 15 14 12 10 10 10 10 8
21 22 22 21 21 20 19 18 20 20 21 20 21 23 21 20 20 19 18 18 18 20 21 20 18 17 15 13 13 12 11 10 11 11 12 11 10 9 9 10 11 9 7
23 22 21 21 21 21 21 21 19 17 16 16 18 18 18 18 17 16 16 15 15 18 18 16 15 13 11 9 8 7 8 8 9 9 10 10 10 9 8 7 8 6 5
21 21 22 21 21 21 20 20 19 19 18 17 13 13 13 13 13 13 13 15 13 12 11 11 11 10 7 6 6 7 8 8 8 7 8 9 9 7 7 5 4 6 4
21 20 20 19 18 18 18 16 15 14 13 13 13 12 10 10 10 11 11 11 10 8 7 6 8 7 6 7 9 8 7 7 7 7 7 7 8 6 5 4 5 4 3
17 16 18 18 17 16 15 12 11 10 9 9 8 8 8 9 9 9 9 9 8 7 6 5 5 6 7 6 7 7 5 5 4 4 5 6 7 5 5 4 4 4 2
17 16 15 15 14 13 12 10 9 8 7 6 5 6 5 6 6 6 5 6 5 5 6 5 6 6 5 5 4 5 4 5 3 3 4 4 5 4 3 4 3 2 1
14 13 12 11 11 10 8 8 8 6 5 5 5 4 4 6 5 4 4 6 6 4 4 5 4 3 3 4 3 4 3 3 3 3 3 2 2 3 3 3 3 3 2
12 12 10 9 8 8 8 7 8 7 6 6 5 4 4 5 4 4 4 5 4 4 3 4 3 2 2 3 3 2 1 1 1 0 0 1 1 2 3 3 1 1 1
10 10 8 9 9 8 9 8 6 5 5 6 6 5 4 4 4 3 3 3 3 3 3 2 1 0 -0 1 2 1 -0 -1 -1 -1 -1 -0 0 0 1 0 1 1 1
9 9 9 8 8 8 7 6 6 6 5 5 4 4 2 2 2 2 2 1 0 1 0 0 1 0 -0 -1 -1 -2 -2 -3 -4 -4 -1 -0 -1 -1 -1 -0 -0 0 -0
6 6 6 6 6 5 5 5 4 4 3 3 3 3 2 1 1 1 0 -1 -1 -1 -1 -0 -1 -2 -1 -1 -1 -1 -3 -4 -4 -4 -3 -1 -1 -1 -1 -0 -1 -1 -0

GFSGL_sfc_30mbdewp_081.txt.gz
Dewpoint
55 54 54 55 55 56 56 55 55 56 56 57 57 58 57 56 55 54 53 53 52 52 53 53 53 54 53 52 51 52 52 51 49 48 48 49 51 52 50 51 52 53 53
54 55 54 54 54 55 54 54 55 55 56 56 56 56 57 57 57 56 55 53 52 51 52 52 52 52 52 51 52 52 52 52 51 49 50 50 51 52 51 51 50 49 50
55 55 54 54 55 54 54 55 55 55 55 56 56 56 56 56 57 56 56 55 54 53 53 53 52 52 52 52 53 52 52 52 52 51 49 49 50 50 50 51 51 51 51
53 52 52 53 54 54 54 55 56 56 55 55 55 55 55 55 53 55 56 56 56 56 56 55 53 51 51 53 53 53 52 52 51 51 51 51 52 52 53 52 51 52 52
44 44 44 45 46 47 48 50 52 50 50 50 53 46 41 38 36 39 46 54 56 56 56 56 56 56 55 54 53 52 53 53 53 53 53 53 53 53 52 51 51 51 52
39 39 40 41 42 43 44 45 43 42 42 42 39 37 36 34 33 34 36 47 51 51 51 49 50 43 44 44 45 46 47 49 52 52 52 51 52 52 52 52 52 51 50
36 36 38 39 40 41 42 40 39 37 37 36 36 34 31 31 32 33 34 41 41 37 36 37 39 37 34 35 39 42 35 33 36 41 45 44 39 34 33 39 43 43 43
33 35 36 37 38 39 39 37 36 35 34 34 34 32 30 30 31 34 38 38 34 31 30 31 32 31 30 32 36 40 31 29 29 29 27 26 26 27 28 32 34 35 38
30 30 32 34 35 35 35 35 34 33 32 31 31 31 29 28 29 33 38 34 31 29 28 28 28 28 28 32 37 34 28 27 27 27 26 25 26 26 25 29 27 30 34
28 29 30 31 32 32 33 33 32 32 31 30 29 28 29 27 28 30 32 31 29 27 27 26 26 27 27 29 31 29 25 24 24 24 23 23 23 24 24 24 24 26 24
27 28 28 30 31 31 32 32 31 31 30 29 28 27 26 27 26 27 29 29 28 27 26 25 26 25 25 25 25 25 24 24 23 23 24 25 26 26 26 25 25 24 24
28 26 27 28 28 29 30 31 30 29 28 28 27 28 28 26 25 25 25 26 27 26 25 25 25 24 24 25 26 27 27 28 27 26 25 24 23 24 25 24 23 21 20
25 26 27 27 27 28 29 29 29 29 29 28 27 26 26 28 28 26 25 24 24 25 25 24 24 23 23 24 22 23 25 26 25 24 23 23 23 23 24 24 25 22 16
22 22 23 23 23 23 23 24 25 27 26 27 27 25 25 24 24 27 27 27 27 27 26 26 25 25 24 22 23 23 23 22 22 22 22 21 21 17 15 15 15 14 13
23 23 22 22 21 20 21 22 22 23 24 24 23 23 22 21 21 21 22 24 25 25 26 24 23 22 21 20 18 18 16 17 17 17 16 15 14 13 12 12 12 12 11
23 23 24 23 21 20 18 18 19 20 20 20 21 23 20 20 19 19 19 19 21 22 22 20 19 18 16 15 14 13 12 12 12 13 13 13 13 12 11 11 12 11 9
24 23 23 24 23 23 24 20 18 17 16 17 17 17 17 17 17 16 17 16 16 20 18 17 16 14 12 10 10 10 10 10 10 11 11 12 12 11 10 9 8 9 7
23 23 24 23 23 23 22 22 23 23 20 17 13 12 12 13 14 15 15 16 14 13 13 13 12 11 9 9 9 9 10 10 10 10 10 11 11 9 8 7 7 6 6
22 21 21 21 20 20 20 19 18 17 16 16 17 14 13 12 13 13 14 13 12 10 8 8 9 9 8 9 11 11 10 9 9 9 9 8 10 8 7 6 7 7 5
19 18 19 19 19 18 17 15 14 13 13 12 10 10 11 12 12 11 12 12 10 9 8 7 8 9 9 8 9 9 7 7 6 6 7 8 8 8 6 6 6 5 3
18 17 16 16 15 14 14 12 12 11 10 8 6 8 9 9 9 8 8 9 8 7 9 7 8 7 7 6 7 7 6 7 6 5 6 5 6 6 5 6 5 4 3
14 13 12 12 12 12 10 10 10 9 8 8 8 7 8 9 8 7 7 8 8 7 6 7 7 5 5 6 5 6 5 4 4 4 3 4 4 5 5 5 4 4 3
13 13 11 11 10 10 11 9 11 10 9 9 8 7 7 8 7 7 7 7 7 7 5 6 6 5 4 6 5 4 3 3 3 2 2 2 2 4 3 4 2 2 2
12 12 8 10 10 10 11 11 9 6 7 8 9 8 7 7 7 6 6 5 4 5 5 5 3 2 1 2 4 3 2 -0 -1 0 0 2 2 1 1 1 2 2 2
11 11 10 10 10 10 9 8 8 8 8 7 7 7 5 5 5 5 5 4 2 3 2 2 2 1 2 0 -0 -0 -0 -3 -3 -3 -1 1 2 1 2 1 1 0 1
8 8 8 8 8 8 8 7 7 6 6 6 6 6 5 4 3 4 3 2 1 1 1 2 1 0 -0 0 3 -0 -3 -3 -3 -4 -3 -0 2 1 1 -0 1 -0 1

GFSGL_sfc_30mbdewp_084.txt.gz
Dewpoint
57 56 56 55 56 57 57 57 56 57 58 58 58 56 56 56 56 56 56 56 56 55 54 54 54 55 54 54 53 51 52 49 49 49 49 49 49 51 51 51 53 54 54
56 56 55 55 56 57 56 56 56 56 57 57 58 57 56 55 55 55 54 54 54 54 54 54 54 54 54 54 54 53 51 50 48 46 50 50 50 51 52 52 52 51 50
56 55 55 55 55 55 55 55 56 56 56 56 57 57 57 56 55 55 54 54 53 52 52 52 52 53 51 51 52 51 52 52 51 51 49 48 48 50 50 50 50 51 51
52 51 51 52 53 53 55 55 56 56 56 56 54 48 47 44 45 49 55 55 54 54 53 53 53 52 51 51 50 51 52 51 51 50 50 50 50 50 50 50 50 52 52
46 45 46 47 48 49 48 47 47 47 45 45 42 40 38 36 35 38 45 53 56 55 55 55 49 43 42 43 51 50 52 52 52 51 51 51 51 52 53 54 54 54 54
41 42 42 43 44 43 42 41 40 40 39 37 35 35 35 34 34 35 39 48 43 43 41 41 41 36 37 38 36 35 36 44 48 49 51 51 50 41 40 41 43 46 47
39 40 41 42 40 39 38 37 37 36 35 34 33 32 32 33 35 38 38 36 34 33 34 34 34 33 32 34 36 32 31 31 31 36 38 30 31 29 31 35 38 39 40
35 37 39 39 39 38 36 35 34 34 34 33 32 31 30 32 37 35 34 32 30 29 29 30 30 30 31 34 36 30 28 28 28 28 27 27 27 27 27 31 33 33 35
33 34 35 36 37 36 35 35 34 33 32 31 31 30 29 30 33 35 33 30 29 28 28 28 28 28 30 36 32 28 26 26 28 27 26 26 26 26 26 27 26 30 32
32 33 33 34 34 34 34 33 32 31 30 29 27 28 28 28 30 31 31 29 27 26 26 27 27 27 27 28 27 25 24 24 24 25 26 27 27 26 25 26 26 25 24
31 32 33 33 33 32 32 32 31 30 29 28 27 26 26 27 28 29 30 29 27 25 25 25 25 25 26 27 26 25 25 26 27 27 26 25 26 26 25 24 24 23 23
30 31 31 32 33 33 32 32 31 30 29 29 28 28 28 27 26 26 26 26 26 25 25 26 25 24 24 25 26 27 28 27 26 25 24 24 23 23 26 24 21 19 17
31 30 29 30 29 28 27 29 29 30 29 27 26 25 25 26 29 27 26 25 26 26 26 25 24 23 23 23 23 23 25 25 25 24 23 23 21 20 19 20 24 17 14
23 23 22 22 23 24 24 24 23 27 26 27 26 24 23 22 23 26 28 28 28 28 27 26 25 25 23 21 21 20 21 22 21 20 20 18 18 18 15 17 16 15 12
24 23 22 21 20 20 22 22 21 23 24 23 22 22 20 20 22 22 24 25 25 26 26 24 22 21 19 19 18 17 17 17 17 17 16 17 15 14 14 15 15 14 12
25 26 25 22 20 19 18 19 20 20 20 20 21 21 21 20 19 19 20 21 22 24 22 20 19 17 15 15 15 15 14 13 14 15 14 15 15 13 13 12 13 14 11
26 25 25 25 25 26 22 19 17 16 15 15 16 17 17 17 17 17 17 17 18 20 18 17 16 14 13 12 12 12 12 13 14 13 13 13 14 13 12 12 10 9 9
24 24 25 25 24 24 24 24 23 22 18 16 14 14 14 15 16 17 17 16 15 15 15 14 13 12 12 13 13 12 12 11 12 13 11 12 13 12 9 9 10 8 7
24 25 23 23 23 23 21 20 19 19 19 18 19 16 15 14 14 15 15 15 13 11 11 11 11 11 11 13 11 12 10 9 9 10 11 10 9 11 9 8 9 7 6
19 19 21 21 20 19 18 17 16 16 14 12 11 12 13 15 13 13 13 13 12 12 11 10 11 12 11 11 12 9 9 9 8 9 8 8 7 10 7 8 7 7 7
19 17 17 17 16 16 15 14 14 14 12 9 8 9 9 12 11 11 11 11 10 10 11 10 10 8 8 8 10 10 7 8 7 6 6 7 7 10 8 8 7 6 7
15 14 14 14 14 14 13 13 13 12 11 11 10 8 10 12 10 10 11 11 10 9 10 11 9 9 8 8 7 7 6 5 5 5 4 4 5 9 5 7 6 5 4
15 15 13 14 12 13 14 14 14 12 12 11 11 10 10 11 8 9 11 9 10 10 7 7 5 5 4 7 9 7 3 2 2 4 1 3 4 4 4 5 4 5 4
15 14 10 11 11 15 16 14 7 6 9 12 11 11 8 9 8 10 8 6 5 9 5 5 7 2 2 1 3 5 0 -1 -1 0 -1 1 5 4 1 3 2 2 1
13 12 12 12 13 13 12 11 11 10 10 10 10 10 8 8 8 8 7 6 3 3 5 5 4 2 2 0 2 0 -3 -2 -2 -3 -2 -1 2 4 4 3 2 4 1
10 11 12 12 13 11 11 11 10 9 9 9 8 9 7 7 7 5 5 4 3 0 2 4 3 1 0 3 2 -2 -3 -1 -3 -4 -4 -1 3 1 0 -0 -1 1 2

GFSGL_sfc_30mbdewp_090.txt.gz
Dewpoint
59 58 57 57 57 58 58 58 57 57 57 57 56 57 57 57 58 57 57 57 57 57 57 56 56 56 55 54 53 52 51 50 47 49 50 50 50 49 52 56 55 56 55
58 57 57 57 58 58 58 58 58 57 57 57 57 56 56 57 57 57 56 57 56 56 56 56 56 56 55 54 53 51 51 50 49 47 49 50 50 51 51 51 53 54 54
57 57 57 57 57 57 57 58 58 58 57 57 57 56 56 56 56 56 57 56 56 56 56 55 55 55 54 53 52 52 52 52 52 51 50 50 50 50 50 50 50 49 49
52 54 54 54 54 54 54 54 54 52 51 50 49 49 50 51 54 56 56 56 56 56 56 56 55 55 54 54 53 52 51 51 52 51 50 49 50 50 49 48 48 51 49
46 47 47 48 48 48 47 46 44 43 42 42 42 42 41 42 43 50 55 55 54 48 45 43 41 41 44 47 53 51 52 51 51 50 50 50 49 50 47 44 47 46 39
40 41 42 43 42 41 41 40 39 38 38 38 38 39 39 38 39 43 47 45 44 42 39 38 38 36 35 35 34 33 36 45 50 50 48 47 39 35 36 37 40 43 43
38 38 38 38 38 37 37 36 35 34 35 35 36 35 34 34 35 35 36 36 36 36 36 36 36 35 34 32 31 31 31 31 32 37 34 32 31 29 30 34 37 37 33
34 36 35 35 35 34 34 33 32 32 32 32 34 34 33 32 33 32 32 31 30 30 31 33 34 35 33 31 30 29 28 29 29 29 28 28 28 28 29 31 32 30 27
32 32 34 33 32 32 30 30 30 30 30 30 31 32 32 32 31 31 30 29 29 29 30 31 33 32 32 31 28 27 27 28 29 27 26 25 23 25 27 27 26 30 27
30 31 32 32 32 31 30 29 29 29 28 28 29 30 31 31 31 30 29 28 27 28 29 30 30 30 30 28 27 26 25 26 26 25 25 25 20 18 20 21 22 25 25
30 30 30 31 31 31 31 30 29 28 27 27 27 28 29 30 30 31 29 27 27 27 27 28 30 30 29 28 27 26 25 25 23 20 18 17 17 20 14 14 15 16 10
27 27 27 27 28 29 30 30 29 28 26 26 26 26 27 28 29 29 29 28 27 26 26 27 28 27 27 27 26 25 24 23 20 18 17 15 14 16 19 15 13 12 12
25 24 24 25 25 26 26 26 27 26 25 24 24 24 25 27 28 29 28 27 27 26 26 25 23 23 22 22 22 22 21 19 17 15 15 14 13 15 17 16 18 18 14
24 23 24 23 23 23 24 25 24 24 23 23 22 22 24 25 26 27 28 28 27 24 22 21 20 19 18 18 18 18 18 17 16 15 14 14 15 15 14 16 13 14 9
23 23 22 22 22 22 23 23 22 23 23 21 21 22 22 23 26 28 27 25 24 23 21 19 18 16 16 15 15 15 16 16 14 14 14 13 14 14 12 12 12 11 9
23 20 20 19 18 18 18 20 22 22 21 21 21 22 23 24 26 26 24 21 19 18 16 15 15 14 13 13 13 13 14 13 14 13 12 13 12 12 12 11 10 9 8
25 25 24 20 18 17 16 16 17 19 20 22 22 21 20 21 22 22 20 18 16 15 13 13 13 13 13 12 11 11 11 13 11 9 9 9 10 9 10 10 8 8 7
22 22 22 23 23 19 17 16 15 15 15 15 18 21 20 20 18 18 16 14 13 13 12 12 11 12 12 12 10 9 9 8 7 7 6 6 7 8 8 7 7 6 7
22 22 20 19 19 20 20 17 16 14 13 13 14 14 17 16 15 15 13 12 11 11 11 11 11 11 10 8 6 5 5 5 3 3 3 5 5 6 7 7 5 6 6
17 18 17 17 17 18 16 14 11 10 10 10 11 10 11 10 9 9 9 9 10 10 9 8 8 8 8 7 5 4 3 3 2 2 1 2 3 4 6 6 5 4 6
16 15 15 15 15 16 14 11 8 9 9 11 11 10 10 9 8 8 8 8 9 9 7 6 6 6 6 5 4 1 -0 -0 -1 -2 -2 1 1 0 2 4 4 3 6
14 14 14 14 15 14 14 12 8 9 10 10 10 10 10 8 8 8 5 5 6 8 7 4 4 5 5 3 -0 -2 -4 -3 -2 -4 -4 -2 -0 2 -0 2 3 1 2
15 14 16 15 13 11 12 12 10 9 9 9 9 8 8 7 6 6 6 5 4 2 1 -0 -1 2 2 -0 -2 -4 -5 -5 -3 -5 -5 -4 -2 -0 -0 2 2 1 0
14 13 13 14 13 6 7 10 11 10 9 8 7 6 5 5 3 2 2 4 1 1 -0 0 0 -1 1 -1 -3 -3 -4 -5 -4 -5 -6 -6 -3 -1 0 -1 -2 -1 -1
11 11 10 11 11 11 11 9 8 10 10 9 7 7 6 6 4 2 -1 0 3 1 2 4 1 -1 -2 -0 -3 -3 -3 -4 -5 -6 -5 -4 -4 -3 -3 -2 -2 -2 -3
7 8 9 9 9 10 9 8 8 8 8 7 7 5 5 6 6 3 0 -0 -3 -3 3 3 2 -1 0 -1 -2 -3 -3 -3 -5 -6 -7 -6 -5 -4 -4 -4 -2 -3 -2

GFSGL_sfc_30mbdewp_093.txt.gz
Dewpoint
58 58 57 57 57 57 57 57 57 57 57 56 56 56 55 57 57 57 57 57 57 57 57 56 56 56 55 54 53 52 51 50 49 51 51 51 51 52 55 55 56 55 55
59 58 57 57 57 57 57 57 57 57 57 57 56 56 56 57 57 57 56 57 56 56 56 56 56 56 55 54 53 53 52 51 49 49 50 50 49 50 50 50 51 53 53
56 58 57 57 58 58 58 57 57 57 57 57 57 56 56 56 56 56 56 56 57 56 56 56 55 55 55 54 53 52 52 52 51 49 48 49 49 50 50 51 51 48 42
46 52 55 57 57 56 56 56 55 54 53 52 51 51 51 52 55 56 56 56 56 56 56 56 56 55 55 54 53 53 52 51 51 51 51 51 51 51 51 49 48 48 42
41 42 44 47 49 49 49 47 46 45 45 45 44 43 42 43 43 48 55 55 51 49 47 46 46 48 52 54 54 53 52 51 51 51 50 50 50 50 49 45 48 43 37
37 37 39 39 40 40 41 40 40 39 39 40 39 38 38 37 38 45 50 47 45 44 41 38 38 37 37 38 38 38 41 51 51 50 50 50 42 39 38 40 42 44 40
35 35 34 35 35 35 35 35 35 36 36 36 35 34 33 34 35 36 38 39 38 37 38 37 35 34 34 33 32 32 31 32 35 43 42 35 34 31 33 36 38 38 32
32 33 34 33 32 32 32 32 32 33 33 33 33 32 32 32 33 33 33 33 33 33 34 36 34 33 33 32 31 30 29 29 29 29 29 28 29 29 31 33 33 29 28
30 30 32 33 32 31 30 29 30 30 30 30 32 31 31 31 32 31 31 31 30 30 32 33 32 31 32 32 30 28 28 28 27 25 24 24 26 28 30 29 30 31 27
28 29 30 31 31 30 29 29 29 29 28 28 29 30 31 30 31 31 30 29 29 29 29 30 31 30 30 29 28 27 25 25 25 23 21 18 16 17 19 20 26 28 23
27 28 28 29 30 30 30 29 29 28 27 27 27 28 29 29 30 30 29 29 28 28 28 29 30 30 29 29 27 26 25 22 19 18 18 18 16 15 14 14 15 16 10
26 25 25 26 27 28 28 27 27 27 26 26 26 26 27 28 29 29 29 28 28 26 26 28 29 29 28 27 25 23 20 19 18 16 15 15 17 15 16 15 14 13 13
24 24 24 24 25 26 25 25 25 25 25 24 24 24 25 27 28 28 28 27 26 24 25 25 23 23 22 23 22 20 19 18 17 14 13 14 15 16 17 17 17 16 16
22 23 23 23 23 24 24 24 23 23 23 23 23 23 24 25 26 27 26 24 24 22 21 21 21 20 19 19 18 18 18 17 16 14 13 15 16 14 13 15 13 13 11
22 22 22 21 22 23 23 23 23 24 24 22 23 24 24 24 26 27 25 23 22 21 20 19 18 17 16 16 16 16 17 16 14 15 14 14 14 13 12 12 12 11 10
20 20 20 19 20 20 21 23 26 26 26 26 26 26 28 28 27 26 25 24 22 20 17 15 14 14 14 14 13 13 12 12 13 12 12 12 11 12 10 10 10 9 9
25 23 20 19 18 18 18 18 17 19 21 25 23 23 25 25 23 21 19 18 17 15 14 13 13 12 12 12 12 12 11 11 9 9 9 9 9 9 9 9 8 8 8
21 22 22 21 17 16 16 16 16 15 15 16 20 22 20 20 19 18 16 14 13 13 13 12 12 12 11 10 10 9 7 6 6 7 5 5 7 8 7 7 7 6 7
20 19 19 20 20 18 16 15 14 14 14 14 14 13 14 16 15 15 14 12 11 11 11 10 11 10 8 6 5 4 3 2 2 2 2 3 4 6 5 5 6 5 4
17 17 17 18 18 16 15 13 12 11 12 10 10 10 10 10 9 9 9 9 9 9 9 8 8 8 7 5 3 2 1 1 1 2 1 -1 1 3 4 4 4 4 4
14 14 15 16 16 14 10 7 10 11 11 10 10 9 9 8 8 8 8 7 7 7 6 6 5 5 4 3 2 -1 -1 -2 -3 -2 -1 -0 -2 -1 1 2 1 3 5
14 14 15 15 15 13 10 9 10 11 11 10 9 8 8 7 6 5 6 6 6 6 5 4 4 4 3 1 -2 -4 -5 -4 -4 -5 -3 -2 -1 -0 0 2 2 0 1
14 15 14 13 13 13 12 10 9 9 9 9 9 8 7 5 5 5 3 2 2 1 -0 1 1 1 -1 -3 -5 -6 -6 -5 -4 -7 -5 -4 -2 -1 -1 -1 -0 -1 -0
13 12 13 12 8 9 9 9 9 10 9 7 6 6 5 4 3 4 3 1 0 -2 -3 -2 -1 -0 -2 -4 -5 -5 -4 -5 -5 -6 -7 -5 -3 -2 -2 -2 -1 -2 -2
10 10 11 10 9 9 7 9 9 8 8 6 6 4 4 1 0 -0 -0 0 0 1 2 0 -1 -2 -1 -2 -3 -3 -2 -4 -6 -7 -6 -6 -5 -5 -4 -4 -3 -4 -4
8 9 9 9 9 9 8 8 8 8 8 7 7 6 5 5 3 0 -2 -0 -1 -2 1 2 1 -0 -2 -1 -3 -4 -4 -4 -7 -7 -8 -6 -5 -5 -5 -4 -3 -3 -3

GFSGL_sfc_30mbdewp_096.txt.gz
Dewpoint
58 58 58 57 57 57 57 57 56 56 57 57 57 58 58 58 58 58 58 58 58 58 58 57 55 55 55 55 55 53 52 51 48 51 52 51 54 53 53 54 54 54 53
50 58 57 57 57 57 57 56 56 56 57 57 57 56 56 55 56 56 56 56 56 56 57 57 55 55 54 55 54 53 52 52 51 51 51 51 51 52 54 54 53 51 45
46 53 57 57 57 57 56 56 56 56 56 56 55 55 55 56 56 56 56 56 56 56 57 56 55 55 54 54 54 53 52 53 52 51 51 51 51 51 50 51 47 43 41
40 42 44 46 57 57 57 57 56 56 55 54 53 51 51 52 53 55 56 56 56 56 56 56 56 55 54 53 53 53 53 52 52 51 51 50 51 51 51 50 48 43 40
36 36 37 39 41 46 51 49 48 48 47 46 45 43 43 43 42 45 52 55 54 50 47 45 48 56 55 54 53 53 53 52 51 50 50 51 50 50 50 48 48 40 37
35 35 35 35 36 36 39 41 41 40 40 39 38 38 37 36 38 44 50 48 46 45 42 40 39 39 41 41 42 41 46 51 51 50 50 50 48 45 42 44 42 40 38
32 33 34 34 33 33 33 35 36 36 36 35 34 34 33 34 35 37 39 39 38 38 38 37 36 35 35 35 34 33 33 33 35 48 47 42 39 36 38 39 40 37 32
30 31 32 33 33 33 32 31 32 32 32 32 32 32 32 32 33 34 34 34 34 34 34 34 33 33 33 33 32 31 29 29 29 30 30 30 31 31 34 35 34 29 28
28 29 30 31 31 31 31 30 30 29 29 30 30 31 31 31 32 32 32 31 30 31 32 32 32 32 33 33 30 27 26 25 25 26 26 26 27 29 31 32 31 31 27
26 27 29 29 29 28 29 29 30 29 29 29 29 29 30 30 32 31 31 30 29 29 30 31 31 31 31 30 28 26 24 24 23 21 19 19 19 21 23 27 31 28 23
26 26 26 27 28 28 28 28 28 28 28 27 27 28 29 30 31 31 30 29 28 28 28 28 30 30 29 28 27 24 23 23 22 20 19 20 19 17 16 16 17 16 13
24 24 24 25 25 26 26 26 27 26 26 26 25 25 27 28 29 29 29 28 27 26 26 27 28 27 26 25 25 24 23 21 20 19 17 16 16 16 17 16 16 16 16
23 23 23 23 24 24 23 23 23 24 25 25 24 24 25 26 25 26 26 25 25 24 24 25 24 24 23 23 22 20 19 18 17 16 15 15 17 18 17 16 16 13 12
22 22 22 23 23 23 23 23 23 23 23 23 24 24 24 24 24 25 24 23 23 21 21 21 21 20 19 19 18 18 18 17 16 15 15 16 16 16 15 16 15 15 10
21 21 21 21 22 22 24 24 23 26 25 24 25 25 24 23 25 25 23 21 21 21 20 19 18 17 16 16 16 16 16 16 16 16 16 16 15 15 14 15 13 12 11
20 19 19 20 20 20 20 20 25 26 26 27 27 26 27 27 26 25 24 23 22 20 17 15 14 14 14 14 13 13 13 13 14 14 14 14 13 13 12 12 12 11 9
23 23 20 18 19 19 18 18 17 20 22 25 25 24 23 22 21 20 19 18 17 15 13 13 13 13 13 12 12 11 10 11 11 11 11 12 12 12 11 10 10 10 8
19 20 17 16 16 16 16 16 16 15 15 15 18 20 20 19 18 17 15 13 12 13 12 12 11 11 11 10 9 7 7 7 7 7 7 8 9 8 8 8 7 7 5
17 18 18 17 16 15 14 14 14 14 13 12 12 11 13 15 15 14 13 12 11 11 10 10 10 9 8 6 5 4 4 3 3 3 4 5 5 6 6 6 5 3 3
14 16 18 17 15 14 13 12 12 12 11 10 9 10 11 10 9 9 9 9 9 9 9 8 8 7 5 4 2 2 1 1 3 3 0 1 3 5 4 5 5 5 4
13 14 16 15 13 10 7 10 11 11 10 9 9 9 9 8 8 7 7 7 7 6 6 6 5 5 4 3 2 -0 -1 -2 -1 0 1 0 -1 2 3 2 2 4 3
14 15 14 14 13 9 9 11 11 11 10 9 8 7 6 6 6 6 6 5 5 5 5 5 4 4 2 1 -2 -4 -4 -5 -4 -3 -2 -1 -0 0 1 1 1 -0 1
14 13 12 12 13 12 9 10 9 9 9 8 8 7 6 5 4 4 3 2 1 0 1 1 1 -0 -3 -5 -5 -5 -5 -5 -6 -7 -4 -3 -1 -1 -2 -1 -1 -1 -0
11 10 11 10 9 9 8 7 9 9 8 7 6 5 4 3 3 3 2 -1 -1 -3 -3 -2 -1 -1 -3 -6 -6 -4 -4 -5 -6 -6 -6 -4 -2 -2 -2 -1 -2 -3 -3
9 9 9 9 8 7 8 8 8 8 7 6 5 4 3 1 1 1 -0 -2 -0 -1 -1 -2 -3 -2 -2 -4 -4 -3 -2 -4 -7 -7 -7 -6 -5 -4 -4 -3 -3 -3 -3
7 8 7 8 8 8 6 6 6 5 6 6 5 4 4 4 3 -0 -2 -1 0 -0 0 -1 -1 -2 -2 -2 -3 -4 -4 -6 -8 -8 -7 -6 -6 -5 -6 -5 -4 -3 -4

GFSGL_sfc_30mbdewp_099.txt.gz
Dewpoint
45 57 58 58 58 58 58 58 58 58 58 58 58 58 58 59 59 59 59 59 58 58 58 58 57 57 56 55 55 54 53 52 49 52 53 54 54 54 54 55 55 54 51
42 49 57 58 58 58 57 58 58 57 57 56 56 57 57 58 58 58 58 58 58 57 57 57 57 57 56 55 55 54 53 53 51 50 52 52 54 54 54 54 55 50 45
40 41 44 45 55 57 57 57 57 56 56 56 57 56 57 56 56 56 56 57 57 56 57 57 57 56 55 55 55 54 53 53 52 51 51 52 53 54 55 51 46 44 41
37 38 38 40 41 47 57 57 57 56 56 57 56 55 55 54 55 56 56 56 56 57 56 56 57 56 55 55 54 53 53 52 52 53 52 51 52 52 52 49 45 43 40
34 35 36 37 37 38 43 44 54 53 51 49 47 45 44 44 43 48 52 55 56 52 48 47 45 54 55 55 54 54 53 52 52 52 51 51 51 50 51 51 45 40 38
32 33 35 35 35 35 35 38 38 42 41 41 40 39 39 38 38 43 50 49 47 45 43 41 40 40 43 46 47 50 53 52 52 51 51 50 50 50 48 49 40 38 37
30 31 32 34 34 34 33 33 33 34 35 34 34 34 34 35 36 38 41 40 39 38 37 37 37 36 36 36 35 34 34 36 43 51 50 49 46 44 44 44 43 40 34
27 29 30 31 32 33 33 32 32 31 32 32 32 33 33 33 34 34 35 35 34 33 33 34 34 34 35 34 35 33 31 31 32 33 35 32 33 35 38 39 35 29 29
26 27 28 29 28 30 31 31 31 30 29 30 31 31 31 32 33 33 33 32 31 31 32 32 32 32 33 33 30 29 26 26 29 30 30 30 31 32 34 34 32 32 28
25 26 27 28 27 27 28 29 30 30 28 29 29 30 31 31 32 32 31 31 29 29 30 30 31 31 31 30 29 27 24 23 24 23 23 23 24 26 27 30 33 31 26
26 25 26 27 27 27 27 28 28 27 27 27 26 27 27 29 30 31 30 29 28 27 27 27 28 29 28 27 26 25 23 24 23 22 21 21 21 20 20 21 23 26 23
24 25 25 25 26 26 26 26 27 28 26 26 25 24 25 26 27 28 27 27 27 26 25 26 27 27 26 25 24 24 23 22 20 19 18 18 18 18 20 21 21 21 22
23 23 25 25 25 26 26 25 25 26 26 26 25 25 25 26 25 25 25 24 24 23 24 24 23 23 22 23 23 21 21 20 19 17 17 18 19 20 19 18 18 14 13
22 22 23 23 24 25 24 25 25 25 25 25 25 25 24 25 25 24 24 24 24 23 22 22 21 21 20 21 20 21 20 20 19 19 19 19 20 20 19 18 15 12 9
19 21 21 21 21 21 24 25 25 27 26 25 25 25 24 23 24 25 24 23 22 22 22 21 20 19 18 18 18 18 19 19 18 19 19 19 18 17 17 17 16 14 12
20 17 20 20 20 19 20 21 23 26 26 25 24 25 26 24 23 23 22 22 22 21 20 19 18 17 16 16 15 15 15 16 16 16 16 16 15 15 15 15 14 11 9
20 17 15 18 19 19 19 19 19 20 20 22 23 22 21 20 19 19 18 17 16 16 16 16 15 15 14 13 13 13 13 13 14 14 14 14 14 13 13 12 11 10 8
21 18 17 17 17 18 18 19 18 18 17 17 16 18 19 18 17 16 15 14 13 13 13 13 13 12 11 9 8 9 10 10 10 10 11 12 11 10 9 8 7 7 4
20 20 19 18 17 16 17 17 16 14 13 14 14 13 13 14 14 14 14 13 12 11 10 10 10 9 8 8 8 8 8 8 9 9 9 9 10 8 8 6 5 5 3
17 17 18 18 16 14 14 14 14 13 12 11 11 12 12 12 12 12 12 12 11 10 10 9 8 8 7 7 7 7 7 7 7 6 8 9 9 8 7 7 7 5 3
16 17 16 16 13 12 12 13 13 12 11 10 10 10 10 10 10 10 9 10 9 9 9 8 9 8 8 7 5 5 3 4 5 5 5 5 7 6 6 6 5 4 3
16 15 15 15 13 12 12 12 12 12 10 9 9 7 8 8 8 7 8 8 8 7 7 8 6 6 5 4 2 2 1 1 2 4 4 4 4 4 4 4 4 3 2
14 14 14 14 15 13 12 12 12 12 11 10 9 8 7 7 6 5 6 6 5 5 5 6 5 3 2 2 2 1 -1 -1 -1 1 3 3 3 3 4 3 2 2 2
12 12 12 12 12 12 13 13 12 11 11 10 10 9 8 7 7 6 6 5 4 4 4 3 2 2 0 1 1 0 -1 -1 -2 -2 -0 2 2 2 2 1 1 0 0
10 10 10 10 10 10 11 11 12 11 11 11 10 9 8 7 6 6 5 5 4 4 3 3 3 1 0 -0 1 1 -0 -3 -3 -3 -2 -0 0 1 0 0 -0 -1 -1
8 9 9 8 8 8 9 9 9 9 9 10 9 9 9 9 8 7 4 4 4 4 4 4 3 2 2 1 0 -1 -3 -4 -4 -5 -3 -3 -2 -1 -1 -1 -1 -1 -2

GFSGL_sfc_30mbdewp_102.txt.gz
Dewpoint
39 42 47 59 60 60 60 60 60 60 60 60 60 60 59 60 60 60 59 59 58 58 59 59 59 58 58 58 58 58 57 56 52 53 54 56 56 56 56 56 55 55 51
37 40 43 46 53 59 59 59 60 60 60 60 60 59 59 59 59 59 58 58 58 58 58 58 58 58 58 58 58 57 56 55 53 51 54 55 55 55 55 55 54 50 45
35 38 39 40 43 46 57 59 59 58 58 57 57 57 58 59 58 58 59 58 59 58 58 58 58 58 57 57 57 56 55 54 53 52 52 54 54 56 53 52 48 45 42
33 35 36 38 39 40 44 52 57 57 57 57 57 57 57 57 58 57 57 57 57 57 57 57 57 57 57 56 56 55 55 54 53 51 51 52 53 55 51 46 43 44 41
32 32 34 36 37 37 37 39 43 51 56 55 52 51 50 50 46 51 55 57 57 56 53 49 46 45 51 57 55 55 54 53 52 52 51 51 52 53 50 49 44 40 40
30 30 32 33 35 36 35 34 35 36 39 43 44 44 41 38 38 43 49 52 50 49 46 43 41 40 42 50 51 54 54 53 52 51 51 50 51 52 52 49 40 38 35
28 28 30 31 32 33 34 34 33 33 33 34 37 36 35 35 37 40 43 43 41 39 39 39 39 37 38 37 39 38 39 43 50 52 51 51 50 49 49 44 43 42 36
28 28 28 29 29 30 32 32 32 32 31 31 32 34 33 33 34 35 35 36 35 34 34 35 35 35 35 36 36 34 32 33 35 40 43 37 39 41 46 45 40 31 31
27 28 29 28 28 28 28 30 31 31 30 29 30 32 32 32 33 33 33 32 31 31 32 33 32 32 33 34 32 31 29 27 30 31 31 31 32 33 36 37 34 33 29
27 27 28 29 28 28 29 28 29 28 27 27 26 28 30 31 32 32 31 31 29 29 29 30 31 30 31 31 29 27 25 25 26 26 26 25 26 27 29 31 36 34 27
27 27 28 29 29 29 30 30 30 28 27 26 25 25 26 28 29 30 30 29 28 27 27 27 28 28 28 27 26 25 24 25 24 23 23 22 22 22 23 24 26 28 26
27 27 27 28 29 30 30 30 30 30 28 27 26 25 25 26 26 27 27 27 26 25 25 26 27 27 26 25 25 24 23 23 22 21 20 19 19 20 21 22 23 24 26
26 26 26 27 28 28 28 28 29 29 29 28 27 26 26 27 27 26 25 24 24 22 24 24 24 23 23 24 23 22 22 21 20 19 19 20 21 22 22 21 19 18 21
23 23 24 24 25 25 26 26 26 27 26 26 27 26 26 26 27 28 27 27 26 25 25 24 24 24 23 23 23 24 24 22 21 20 20 22 23 22 22 23 21 19 10
18 22 22 22 22 23 23 24 25 25 25 25 25 25 23 22 24 25 26 25 25 25 27 26 25 24 23 22 23 23 24 24 23 23 22 21 19 18 18 19 18 18 16
17 16 19 21 22 21 21 21 21 22 22 22 22 23 22 21 21 21 22 22 24 26 26 24 22 22 22 21 21 20 21 21 21 21 21 20 19 17 17 17 16 14 11
19 18 17 18 18 19 20 21 21 22 19 18 20 20 19 18 18 18 18 17 18 20 20 20 20 19 18 17 16 15 15 16 17 17 17 17 16 16 15 14 13 11 8
21 20 20 19 19 19 19 19 19 17 17 17 16 16 17 17 17 16 15 15 15 15 15 15 15 14 11 10 11 12 13 14 13 14 14 15 14 13 12 11 11 9 4
19 20 20 19 18 18 18 17 17 16 15 15 15 15 15 15 15 15 15 15 13 12 11 11 12 10 10 10 12 13 13 13 13 13 13 13 13 11 9 7 7 6 3
17 18 17 17 16 15 15 15 14 14 13 13 12 12 13 14 14 14 15 15 13 11 10 9 9 10 10 10 12 12 11 11 11 10 12 13 12 10 9 9 9 6 4
16 15 15 15 14 14 14 14 13 13 12 11 10 11 11 10 11 11 11 12 11 11 11 10 11 11 10 9 8 9 8 8 9 9 9 9 10 9 8 8 7 5 3
12 12 12 12 12 13 12 11 12 12 11 10 10 10 9 10 9 9 9 10 11 9 9 10 9 8 8 7 7 7 6 7 7 7 7 7 7 7 7 6 6 5 3
10 11 10 9 12 11 12 11 12 12 11 11 10 9 9 9 9 8 8 9 8 8 8 8 8 6 6 7 6 5 4 3 4 6 6 6 5 6 6 5 4 4 4
9 10 8 8 10 10 12 12 12 11 10 11 12 11 10 9 9 8 7 7 6 7 6 5 5 4 3 5 5 3 2 3 2 2 4 4 4 4 4 3 3 3 2
9 8 8 8 9 9 10 10 11 12 12 11 11 11 9 9 8 8 7 6 5 5 4 4 4 3 2 2 3 2 0 -1 0 1 2 3 3 3 2 2 2 1 1
7 6 7 7 7 7 7 7 8 9 10 10 11 11 10 9 8 9 8 6 5 4 4 4 4 3 2 2 2 1 -1 -1 -2 -1 1 1 1 1 1 1 0 1 0

GFSGL_sfc_30mbdewp_108.txt.gz
Dewpoint
34 35 36 36 38 40 41 43 45 49 57 59 61 62 61 62 62 61 60 60 60 60 60 59 59 60 59 59 59 58 57 57 54 55 56 57 58 58 57 57 55 53 52
32 34 34 34 36 37 38 41 44 44 51 58 60 60 61 60 60 60 60 59 59 57 56 58 58 59 59 59 59 58 57 57 55 54 56 57 57 58 57 57 57 56 53
31 32 32 32 33 35 36 38 40 41 44 52 57 58 60 59 58 58 58 58 56 55 56 56 58 59 58 58 58 58 58 57 57 55 55 56 56 57 56 56 50 46 45
31 31 31 31 32 33 34 36 37 38 39 41 51 58 59 59 59 57 56 55 54 55 57 57 58 58 57 58 58 57 57 57 57 56 54 55 55 56 56 48 44 44 42
30 30 30 31 31 31 32 33 34 36 36 36 38 41 43 47 47 55 58 56 53 53 57 55 51 49 48 49 55 57 57 56 56 55 54 53 53 54 49 48 43 39 39
30 30 31 31 31 30 30 30 30 32 33 34 33 35 36 37 36 44 58 58 57 55 51 47 44 43 42 41 42 45 47 54 55 54 53 52 53 53 49 45 39 38 36
30 30 30 31 31 31 30 29 28 28 29 30 32 32 31 32 34 37 46 45 43 41 42 42 41 39 40 41 38 38 37 37 40 53 53 53 52 53 48 44 42 41 36
29 29 31 31 31 31 30 29 28 27 26 26 28 30 30 31 32 33 35 36 34 33 33 35 36 35 36 38 36 34 32 32 33 38 45 44 46 52 47 46 43 35 34
28 29 30 31 30 31 30 30 30 28 26 25 26 26 27 29 31 32 32 31 30 29 30 31 31 32 34 36 34 32 30 30 32 32 32 33 35 46 44 40 36 36 32
28 28 29 31 29 29 30 30 31 31 29 28 26 26 27 26 29 30 30 29 27 27 28 28 29 30 31 31 31 30 28 26 27 28 28 29 31 32 34 41 39 39 31
28 28 27 28 28 28 28 30 30 30 29 28 27 28 28 28 27 28 27 26 26 25 25 26 27 28 29 29 27 26 25 25 25 25 24 25 25 25 28 31 33 38 34
29 28 27 25 26 26 25 25 26 27 26 27 26 25 26 27 29 29 28 26 25 24 24 26 27 27 27 26 26 26 26 25 24 23 22 21 21 22 24 26 28 29 30
26 26 27 26 24 24 23 22 23 23 24 22 23 22 23 25 26 28 29 29 29 26 27 27 27 26 25 26 26 24 24 23 22 21 21 21 22 23 24 25 26 27 27
20 21 23 24 26 23 22 21 20 21 21 21 20 20 20 21 23 25 27 28 29 29 29 28 28 27 27 27 26 26 24 23 22 21 21 23 24 23 23 24 23 24 23
20 20 21 21 21 24 22 21 20 19 19 19 20 20 19 19 20 21 24 26 28 29 29 27 26 25 24 24 25 25 26 26 23 23 22 22 22 22 22 23 22 22 21
20 20 20 21 21 21 21 23 22 21 19 18 18 18 20 19 20 19 20 21 24 25 24 23 23 23 22 23 22 22 23 24 25 25 25 25 24 23 23 23 22 21 19
21 22 21 21 21 21 21 21 20 23 22 20 19 19 18 18 18 19 18 18 18 19 19 18 17 19 20 21 21 22 21 23 25 24 23 23 23 22 22 21 21 21 20
20 21 23 22 22 22 22 21 20 19 19 19 16 15 18 19 17 18 18 17 15 15 16 16 16 16 16 17 19 21 22 22 22 23 22 21 20 19 18 17 14 12 10
21 19 21 21 20 20 19 19 19 18 17 18 14 11 15 18 16 16 17 18 16 15 14 13 14 15 16 17 16 16 16 17 18 19 19 18 17 15 13 12 10 9 8
19 16 16 18 18 17 17 16 16 16 16 18 14 11 14 16 15 15 15 15 16 15 17 15 15 15 15 15 15 16 15 15 15 17 18 18 16 15 13 13 12 10 8
16 15 14 15 15 15 15 15 15 16 15 13 17 13 12 14 14 14 13 14 14 14 15 16 15 14 15 14 14 14 15 14 14 15 15 15 15 14 14 12 9 7 7
13 13 12 12 13 13 15 14 16 14 13 15 14 14 14 14 12 13 12 13 13 13 11 15 14 12 11 12 13 12 12 13 14 12 10 11 12 12 12 12 9 7 7
12 13 12 12 12 12 14 13 15 15 15 15 15 15 14 13 13 11 12 11 13 12 12 9 9 10 9 12 9 9 9 8 7 8 12 10 12 11 10 9 10 10 6
12 12 11 11 12 12 12 12 12 13 13 13 15 17 15 15 14 14 12 9 8 12 7 9 6 4 4 7 7 3 3 4 7 7 8 10 7 10 8 8 7 6 6
13 12 11 11 12 12 11 11 11 11 11 12 12 13 13 14 13 13 16 10 6 7 10 10 6 9 3 3 1 0 -0 -0 -1 2 7 7 5 6 6 7 6 5 4
14 13 12 14 13 12 11 11 10 10 10 10 9 12 12 10 10 12 12 14 9 6 6 8 6 3 2 6 -0 -1 -2 -3 -1 2 7 5 7 5 6 3 2 5 3

GFSGL_sfc_30mbdewp_111.txt.gz
Dewpoint
32 32 33 33 34 35 36 37 39 40 43 46 49 58 58 58 58 58 60 59 58 57 58 57 55 57 59 59 58 58 56 55 53 53 55 56 59 59 59 59 59 58 56
32 32 32 32 33 33 34 35 37 38 40 42 47 54 58 57 55 59 59 58 58 58 58 57 55 58 59 59 58 58 57 57 55 53 55 55 56 57 59 57 57 56 55
31 31 31 32 32 31 32 33 34 35 37 38 42 44 50 57 58 60 60 60 59 59 59 58 58 58 58 58 58 57 57 57 57 55 54 56 56 57 57 57 54 51 49
30 31 31 32 32 31 31 30 31 32 33 35 37 39 41 43 46 49 59 59 57 56 57 56 54 53 56 58 58 58 57 57 57 56 55 55 56 57 57 51 48 46 44
30 30 30 31 32 30 29 29 28 29 30 32 33 34 35 36 35 38 46 57 55 55 55 54 53 53 56 56 57 57 57 56 56 55 54 54 55 54 53 51 47 41 39
30 30 31 31 31 31 29 28 27 27 27 28 29 31 32 33 34 34 41 56 54 53 50 45 44 43 44 46 48 47 50 56 55 55 55 53 53 54 51 48 41 39 39
30 30 31 30 31 31 30 29 28 27 26 26 27 28 29 31 33 33 33 39 42 42 43 42 40 40 41 39 38 38 37 38 40 47 53 54 53 53 51 47 44 44 40
28 29 30 29 29 30 30 30 30 29 28 27 27 26 27 29 32 32 31 31 30 31 32 34 35 35 38 39 37 35 33 32 33 34 36 38 42 52 51 49 46 38 35
27 28 29 28 27 27 27 29 30 28 27 27 27 27 26 27 29 30 31 28 28 27 29 31 31 32 35 36 35 33 31 30 31 31 32 32 33 44 48 42 37 36 32
27 25 26 26 25 25 25 27 28 28 27 26 26 26 27 28 30 28 27 27 25 26 27 28 30 30 31 31 31 30 28 26 28 29 28 28 28 30 35 41 39 39 32
29 27 25 25 23 22 23 24 24 24 23 24 24 24 25 27 28 30 28 25 25 24 25 26 28 29 29 29 27 26 25 26 25 25 25 25 25 26 27 31 34 39 35
27 28 25 24 24 23 21 20 22 22 21 19 20 21 22 24 27 28 30 29 28 26 25 26 27 28 28 27 26 26 26 25 24 23 23 22 23 24 26 28 29 31 32
22 24 26 25 23 23 21 20 17 18 19 20 18 18 20 22 24 25 28 30 29 27 28 28 28 28 27 26 25 25 24 23 23 22 21 22 23 25 25 26 28 28 28
20 21 22 22 23 22 21 20 19 18 17 18 18 19 19 21 22 23 25 27 27 28 28 27 27 26 26 25 25 26 24 23 22 22 22 23 24 24 23 24 24 25 25
22 21 21 21 22 22 23 23 22 21 19 20 20 19 20 21 22 20 21 23 24 23 23 23 22 23 22 22 23 24 25 25 24 24 23 23 22 23 22 23 24 23 22
22 22 21 21 22 22 21 22 25 21 17 15 18 21 21 19 21 19 18 18 19 19 18 18 19 19 20 21 21 21 23 23 23 23 23 23 22 22 22 22 23 22 20
19 20 23 21 21 21 21 20 19 20 18 13 15 18 22 18 18 20 17 16 15 16 16 16 17 17 18 18 19 21 21 22 24 23 23 22 22 21 21 20 21 21 21
15 16 19 19 17 17 18 17 17 17 14 12 11 16 18 17 15 16 17 16 16 16 15 15 16 17 17 16 16 17 18 20 21 21 21 21 21 21 20 19 19 19 19
18 15 16 17 16 15 16 16 16 16 15 11 11 13 15 15 13 12 13 14 14 14 16 15 15 15 15 16 16 17 16 17 18 19 19 18 18 17 17 17 18 19 18
15 14 15 15 15 16 16 17 16 16 16 14 12 12 13 14 13 12 12 12 12 12 13 13 12 12 14 14 14 15 15 15 16 16 16 16 15 15 13 12 13 13 12
15 14 14 15 13 15 15 15 17 15 14 15 15 13 12 11 12 11 11 11 11 9 10 11 12 11 11 11 11 12 12 11 12 12 13 14 13 12 12 11 10 10 8
14 14 13 13 13 14 13 14 14 14 14 15 16 16 13 12 10 11 9 10 10 9 9 7 7 8 8 8 9 8 7 7 8 8 11 11 11 11 10 8 8 9 9
12 11 12 12 12 12 11 11 11 11 11 12 14 13 15 14 13 11 7 7 10 6 8 3 1 3 6 5 2 2 2 3 5 7 8 11 12 10 10 11 8 6 6
13 10 11 12 11 11 9 8 9 10 9 9 8 10 12 13 12 13 10 5 5 7 4 6 2 1 1 -1 -3 -2 -0 -0 0 4 5 7 9 10 8 6 7 2 1
13 12 12 12 12 12 11 11 9 8 8 8 6 9 10 8 10 9 12 11 6 5 6 6 6 2 1 -1 -4 -4 -5 -3 1 2 5 5 5 6 5 6 4 4 4
12 11 12 11 11 11 10 11 11 11 10 10 7 9 8 7 8 7 8 10 9 6 6 8 3 2 2 -2 -3 -3 -5 -4 0 1 1 2 0 3 2 3 4 3 3

GFSGL_sfc_30mbdewp_114.txt.gz
Dewpoint
31 31 31 31 32 33 33 33 34 35 36 37 38 41 45 48 56 54 53 56 58 57 57 57 58 58 58 58 58 58 56 54 52 53 54 56 58 57 57 58 59 59 57
31 30 30 31 31 31 31 31 32 32 34 35 36 38 41 42 47 58 55 55 57 57 57 56 55 57 57 58 58 58 57 56 54 52 54 54 56 57 58 57 58 59 59
31 30 31 30 30 30 29 30 30 30 30 31 34 35 36 38 39 44 56 57 57 57 57 56 55 54 54 56 57 57 57 57 56 54 53 55 56 56 58 57 57 56 55
30 30 30 30 30 30 29 29 28 29 28 29 30 32 33 35 35 37 42 52 56 58 58 58 57 54 54 56 55 53 54 55 56 55 54 55 55 56 57 53 50 49 49
29 29 30 30 31 30 30 31 29 28 28 28 28 29 31 33 33 34 41 47 51 54 58 56 57 58 57 56 55 55 56 56 56 55 54 54 55 54 54 53 52 44 42
28 29 29 29 29 30 30 29 29 27 27 28 27 28 29 30 33 33 36 36 36 40 49 47 45 48 49 52 53 54 57 56 55 54 54 53 54 55 55 51 45 43 44
27 27 28 28 28 28 29 29 29 28 26 26 27 28 28 29 31 33 32 31 31 31 32 35 39 40 40 40 41 42 41 43 49 54 54 53 53 54 53 50 47 46 45
26 26 27 26 26 27 27 27 26 28 26 26 26 27 28 30 30 29 31 32 30 29 30 30 31 33 35 38 37 37 35 34 35 38 41 38 39 43 50 52 49 40 35
25 24 24 23 22 23 23 24 25 24 24 25 25 25 26 28 31 29 27 28 28 28 28 30 29 30 32 34 34 33 32 30 32 32 32 31 32 36 42 46 42 40 34
26 25 24 24 22 20 20 22 23 22 21 21 22 23 25 26 31 30 29 27 25 26 27 28 29 29 29 30 29 30 28 27 29 29 29 28 29 31 33 40 42 42 34
29 26 24 24 23 22 20 19 20 20 20 20 20 21 23 24 27 29 30 27 26 25 25 26 27 28 28 28 28 27 25 26 26 26 26 26 26 28 29 31 35 41 36
24 26 25 24 23 22 21 20 19 19 18 18 19 20 23 23 23 26 27 27 28 25 25 26 27 28 28 27 26 26 25 25 25 24 24 23 24 24 27 28 30 31 33
22 23 23 24 23 22 21 20 19 19 19 19 18 19 21 22 22 22 24 24 25 25 25 26 26 26 26 25 27 26 24 24 23 22 22 22 23 25 26 27 29 29 29
20 21 22 22 22 23 22 21 18 16 19 19 19 18 19 21 20 20 21 22 21 21 22 22 22 23 24 24 24 25 25 25 23 22 22 23 24 24 24 25 25 26 25
22 21 21 22 22 22 23 24 18 16 19 20 21 20 19 19 22 18 18 18 19 19 19 18 18 19 19 20 21 23 24 24 23 23 23 23 23 23 23 24 24 24 23
19 21 20 20 19 20 19 19 22 14 14 18 19 20 18 16 17 18 18 17 16 17 16 16 16 16 16 18 18 20 21 22 22 23 22 22 21 21 22 23 23 23 21
17 19 17 16 17 17 17 17 15 13 12 12 14 14 14 13 13 15 16 15 15 15 14 14 14 15 16 16 17 18 18 20 21 21 21 21 21 21 21 21 22 22 20
15 15 15 15 15 16 15 15 15 12 11 11 12 14 12 11 10 11 12 11 11 12 12 12 12 13 14 14 15 15 16 17 18 19 19 19 20 20 20 19 20 19 19
15 14 13 14 15 15 16 16 15 14 14 11 11 11 13 10 9 9 9 8 8 9 11 10 10 11 11 12 13 13 14 14 15 16 16 16 15 17 18 19 19 18 18
15 14 13 14 14 14 15 15 15 14 14 14 13 11 11 10 8 8 9 6 6 7 9 9 9 9 9 9 10 10 10 10 10 12 14 14 13 14 14 17 18 16 16
14 14 13 13 13 13 14 13 13 13 13 13 14 14 13 10 9 8 8 8 6 6 4 5 7 6 7 6 7 6 5 5 6 7 10 12 12 10 11 11 11 10 10
12 13 13 13 12 11 11 12 10 10 11 11 11 13 13 12 11 8 9 8 7 7 4 1 2 5 6 0 -0 -1 1 2 3 5 6 10 11 10 10 9 9 9 9
11 11 12 13 12 11 10 9 9 8 9 5 8 11 10 10 10 10 7 4 6 5 4 1 0 0 -0 -4 -2 -2 -1 -1 0 3 4 7 10 10 9 7 6 7 7
12 11 11 11 10 9 9 9 9 8 8 8 5 8 7 8 8 9 9 6 4 6 4 2 1 1 -0 -5 -6 -5 -3 0 0 3 4 6 8 7 7 5 2 1 2
10 9 9 8 7 7 7 7 7 6 5 6 6 5 7 6 7 6 6 10 7 3 4 5 3 1 1 -3 -6 -6 -6 -2 -1 0 3 5 6 4 5 4 4 4 3
9 7 5 5 5 4 5 4 3 2 3 4 4 5 5 4 4 2 5 8 8 8 7 6 4 2 1 -0 -3 -3 -5 -4 -1 -3 -3 1 2 3 3 3 3 2 2

GFSGL_sfc_30mbdewp_117.txt.gz
Dewpoint
31 31 32 32 31 30 30 30 30 31 32 32 33 35 36 37 39 40 42 53 53 54 57 57 57 57 56 57 57 57 56 55 52 53 54 56 57 57 57 58 57 57 56
31 31 31 31 31 30 29 29 29 29 30 30 31 32 33 34 36 37 38 42 53 54 56 56 55 55 55 56 57 56 56 56 55 53 53 54 56 57 57 57 57 58 58
30 30 30 30 30 30 29 29 29 29 29 29 30 30 31 33 33 34 35 38 44 54 55 56 55 56 56 57 57 57 56 56 55 54 53 54 55 56 57 57 57 57 58
29 29 29 29 30 30 29 28 27 27 27 27 29 29 30 31 31 33 34 39 45 50 55 57 57 56 55 55 56 57 56 56 56 55 54 54 54 55 55 54 52 51 52
28 28 28 28 28 28 28 28 27 27 26 26 27 28 29 30 30 31 33 34 36 38 39 43 50 50 55 55 56 56 55 55 55 55 54 54 54 54 53 54 53 48 46
27 27 26 26 26 26 27 26 27 25 25 25 25 26 28 30 31 30 31 31 31 32 33 34 36 37 44 51 54 54 54 52 52 52 52 53 54 54 55 53 48 47 48
24 24 23 23 23 24 24 24 24 24 24 24 24 25 26 29 31 30 29 29 29 30 30 32 32 33 34 39 39 41 44 46 50 53 53 52 54 54 54 51 49 48 49
24 24 23 21 20 20 21 22 22 21 22 22 23 24 25 27 31 30 29 28 28 28 29 29 31 31 32 35 36 35 33 32 34 42 52 45 45 46 53 52 51 44 36
24 24 24 22 20 19 18 19 20 21 20 21 22 23 23 25 29 30 28 27 27 27 28 28 29 29 31 32 31 33 32 30 31 32 33 33 34 37 42 47 45 44 39
24 24 23 23 21 20 19 19 19 19 20 21 22 23 22 23 25 27 28 27 25 25 26 27 28 29 29 29 27 27 27 27 27 28 30 29 30 32 34 39 43 45 38
26 24 23 23 21 21 21 20 20 20 19 19 20 22 22 21 22 24 24 24 24 23 24 24 26 28 28 27 27 26 25 26 26 26 26 26 27 28 29 30 34 41 39
23 23 23 23 23 22 19 18 19 19 19 19 18 19 21 22 20 20 21 22 22 22 22 23 25 25 26 27 26 27 26 25 25 25 23 23 23 25 27 29 30 32 34
22 22 23 23 23 23 19 16 18 19 19 19 17 17 18 20 21 20 19 19 20 20 21 20 21 22 22 23 25 25 25 24 24 22 22 22 24 25 27 27 29 30 30
21 21 21 22 22 23 19 16 16 18 18 19 16 16 16 17 19 20 19 18 18 18 18 18 18 18 18 20 21 22 23 24 23 22 22 23 24 24 24 26 26 26 26
20 20 19 19 19 20 21 16 15 15 15 16 18 15 15 14 15 16 16 17 17 16 15 15 15 15 16 16 17 19 20 21 21 22 22 22 22 23 23 24 24 24 23
18 16 17 18 17 17 17 14 15 13 13 12 12 12 13 11 11 12 14 14 13 13 11 11 11 12 13 14 15 15 17 18 19 20 20 21 21 21 21 23 23 22 22
17 16 16 17 16 16 16 14 12 12 13 12 12 10 9 9 9 8 8 9 10 10 8 8 9 9 10 11 12 13 14 15 17 17 18 18 20 20 21 20 21 21 20
13 13 13 14 14 14 14 13 12 11 11 11 11 12 10 9 8 7 5 4 4 6 8 7 7 7 8 9 9 10 10 11 12 14 15 16 17 19 19 19 19 19 19
12 12 12 12 13 13 14 14 12 12 12 12 10 11 10 10 8 8 6 4 4 3 5 5 6 6 6 7 6 6 7 7 8 9 12 13 14 16 17 18 18 18 18
13 12 12 12 12 12 11 11 11 11 11 11 12 12 12 9 7 6 6 3 4 3 2 3 4 4 4 3 2 2 4 4 5 6 7 10 11 13 13 14 15 16 16
12 13 12 12 10 11 11 10 10 10 8 8 9 12 11 10 9 7 7 6 5 4 2 1 2 2 2 -1 -2 -4 -2 -1 1 3 5 7 9 10 10 11 10 11 13
12 13 13 13 13 10 10 11 9 9 9 7 7 10 9 8 8 9 6 6 4 5 3 1 0 0 -2 -4 -4 -5 -3 -1 -1 0 2 5 8 9 8 8 8 9 9
11 11 11 9 10 9 8 7 7 6 5 5 5 6 7 7 7 8 7 5 4 5 4 2 0 -0 -1 -6 -6 -6 -4 -1 -2 -1 2 4 7 7 5 4 5 6 7
10 9 8 7 5 5 4 3 2 3 3 3 4 4 3 3 3 2 3 3 5 3 1 3 3 1 0 -1 -7 -6 -5 -1 -1 0 2 3 5 6 5 4 3 2 4
6 5 4 3 2 2 -0 -1 -2 -2 -1 0 1 3 2 3 2 2 3 3 3 2 4 3 3 4 2 0 -2 -4 -5 -5 -2 -3 -1 3 3 4 3 3 2 2 2
4 3 2 1 1 0 -2 -3 -5 -5 -5 -4 -2 0 0 0 0 -0 0 1 1 1 1 1 2 2 3 1 1 0 -4 -5 -2 -2 -6 -1 1 1 3 2 0 0 1

GFSGL_sfc_30mbdewp_120.txt.gz
Dewpoint
31 31 31 31 31 31 31 30 30 30 30 31 31 32 32 33 34 35 36 37 38 42 51 53 55 56 57 56 57 57 56 55 52 52 55 56 57 57 57 57 58 58 57
30 30 30 30 30 29 28 28 28 28 29 29 30 31 31 31 32 33 34 35 37 40 44 52 54 56 56 56 56 55 56 56 54 52 53 54 56 57 57 56 57 58 57
30 29 28 29 28 28 28 27 27 27 27 28 29 30 31 31 31 31 33 34 36 38 41 45 54 55 55 55 55 55 56 55 55 52 53 55 55 57 56 57 57 57 57
29 28 28 28 27 28 27 27 27 26 26 26 27 29 31 31 30 30 31 32 32 33 35 37 39 38 40 51 55 56 55 55 55 55 54 53 53 55 56 54 54 54 54
25 24 25 25 25 25 25 24 25 25 25 25 26 27 29 30 30 29 29 29 29 30 30 32 34 35 35 36 43 55 56 56 55 54 53 53 52 53 53 55 53 51 49
24 23 22 22 22 22 22 23 22 22 23 24 24 25 27 28 31 29 28 27 27 27 27 28 30 31 33 35 37 45 46 55 55 54 53 53 53 53 54 54 50 48 49
24 23 22 21 20 20 20 20 20 21 21 22 23 24 25 27 28 28 28 27 26 26 26 27 27 28 30 33 35 34 34 34 35 45 53 53 53 54 54 54 50 52 52
23 23 22 21 20 20 19 19 19 20 20 22 21 21 22 25 26 26 26 26 26 26 26 27 27 28 29 30 33 33 32 32 32 32 32 35 40 54 55 54 53 48 39
23 23 23 21 20 20 19 19 19 19 19 20 21 21 21 21 23 24 23 23 23 23 24 26 27 26 29 28 27 29 29 29 31 33 32 32 32 33 41 51 47 46 41
23 23 23 21 20 19 19 19 20 19 19 19 19 20 21 21 21 21 22 22 21 21 22 23 25 27 28 28 25 25 24 24 27 30 31 31 31 31 32 35 47 48 42
24 23 22 22 20 19 18 19 20 19 17 17 16 17 18 20 19 19 19 20 20 20 20 21 23 25 25 26 26 25 24 26 25 26 28 29 29 28 28 30 32 38 42
23 23 23 23 22 19 17 18 19 19 17 14 15 14 15 17 18 17 18 17 18 18 18 19 20 20 21 23 24 24 24 25 24 24 23 23 24 25 26 28 30 30 32
22 22 22 22 23 17 16 16 16 17 16 14 13 13 13 14 16 16 16 16 15 15 17 16 16 16 17 18 19 21 21 21 22 21 21 22 23 25 26 26 29 30 30
19 19 19 19 19 18 15 15 15 14 14 13 11 12 12 12 12 14 15 15 14 13 13 13 12 14 14 14 15 17 18 19 20 20 20 22 24 24 24 25 25 26 27
16 17 18 18 18 16 15 15 14 14 13 12 12 11 11 10 10 10 11 12 11 10 9 8 8 9 10 11 11 13 14 15 16 18 19 19 21 22 22 24 24 24 22
16 16 17 17 16 15 14 13 14 13 12 12 11 11 11 10 9 7 7 7 7 6 5 5 5 6 7 8 8 9 10 11 12 14 15 17 18 20 21 22 22 22 21
15 15 15 15 15 14 13 12 10 11 13 12 11 11 10 9 9 7 5 4 4 3 3 3 4 4 5 5 5 6 7 8 10 11 12 13 14 18 19 19 20 20 20
12 12 12 12 12 12 11 10 9 9 9 10 11 12 11 9 9 7 5 2 1 2 2 2 2 2 2 1 0 -0 3 5 6 7 9 11 11 14 17 17 18 18 18
10 10 10 10 10 9 10 9 9 8 7 9 10 10 11 10 9 8 7 3 3 2 1 1 1 0 -1 -2 -3 -3 -1 1 3 4 6 8 10 11 12 13 15 17 17
11 11 10 10 10 10 10 9 9 8 7 6 8 9 9 8 7 6 5 3 3 4 2 2 1 -1 -2 -2 -3 -4 -2 -1 0 2 3 5 7 10 10 11 12 13 16
12 12 12 12 10 10 11 9 8 8 8 7 7 7 8 8 7 7 6 5 5 4 4 3 1 0 -2 -3 -4 -5 -3 -2 -1 -0 1 3 5 7 8 9 9 11 12
13 13 11 11 9 7 8 7 5 4 4 3 4 4 4 4 4 5 5 3 2 4 4 3 3 1 0 -3 -5 -6 -5 -3 -1 -1 -0 2 4 7 7 4 5 7 9
9 8 7 6 6 4 1 2 1 1 1 0 2 2 3 2 2 1 0 0 1 1 0 0 0 2 2 -1 -4 -6 -4 -4 -3 -2 -1 1 3 5 6 6 4 3 5
6 5 5 4 1 -0 -2 -4 -4 -3 -3 -2 -2 -1 -1 0 1 0 1 1 1 1 1 -0 -0 0 1 1 -0 -2 -3 -3 -2 -2 -4 0 2 3 4 4 4 2 3
3 2 1 0 -1 -4 -5 -6 -8 -8 -8 -7 -6 -4 -4 -3 -3 -4 -4 -2 -2 -1 -1 -0 -0 -0 0 1 1 1 -1 -4 -5 -3 -3 -3 -1 1 2 2 1 1 2
2 -0 -1 -2 -4 -5 -8 -9 -10 -10 -10 -10 -11 -9 -9 -9 -8 -8 -8 -8 -7 -7 -6 -4 -3 -2 -1 0 1 3 1 -3 -4 -4 -4 -4 -4 -2 -1 1 1 -1 -1

GFSGL_sfc_30mbdewp_123.txt.gz
Dewpoint
30 30 30 30 30 30 29 28 28 29 29 29 30 32 32 32 33 33 34 36 37 39 41 43 46 50 53 55 56 56 56 55 53 54 55 54 56 57 58 59 59 59 59
30 29 29 29 29 28 28 27 27 27 27 28 29 31 31 31 32 32 33 34 35 35 37 39 41 40 47 54 55 56 56 56 55 53 54 55 56 57 58 58 58 58 58
28 28 28 27 27 27 26 26 26 26 26 26 28 29 31 31 30 30 30 30 31 32 33 34 35 35 35 37 40 53 55 55 55 54 53 55 56 57 57 57 57 57 58
25 24 24 24 25 25 25 24 25 25 25 25 26 27 30 30 30 29 29 29 29 29 30 31 31 31 32 33 37 40 45 54 55 54 54 54 54 56 56 55 54 56 56
22 22 21 21 22 22 22 22 22 23 24 24 24 25 28 28 29 29 28 28 27 27 28 28 29 30 31 32 35 36 37 41 54 54 53 54 54 54 54 55 54 54 54
21 20 20 20 20 20 20 21 21 21 22 21 22 22 24 25 26 26 27 27 26 26 26 27 27 28 29 30 33 34 33 31 33 51 53 53 53 53 54 53 53 51 49
21 20 20 21 20 21 20 20 20 21 21 21 21 21 22 23 23 24 25 26 25 25 25 26 26 27 28 28 27 30 32 30 31 31 35 47 47 53 54 53 53 52 51
21 20 20 20 20 20 20 20 20 20 20 20 20 21 21 22 20 21 23 25 25 25 24 26 26 27 28 27 26 26 27 27 29 31 31 31 32 33 34 52 54 51 44
21 20 20 19 19 19 20 20 19 19 18 19 19 19 20 21 19 19 20 22 22 23 23 24 24 26 26 26 25 24 25 25 28 30 31 32 32 33 33 41 52 48 44
21 21 20 18 19 19 20 20 20 17 17 16 16 17 18 19 17 17 19 19 18 20 20 21 21 22 23 24 24 23 22 24 25 25 26 27 29 29 31 32 31 41 46
22 22 20 19 17 18 18 19 19 16 15 15 14 16 16 17 17 15 15 17 17 16 17 18 20 18 19 20 21 22 22 24 25 25 25 25 25 26 27 29 31 31 32
23 22 21 18 17 17 17 17 17 15 14 14 13 14 16 16 14 14 13 12 13 15 15 15 16 14 15 16 18 17 18 20 22 22 22 22 23 24 25 27 29 31 31
21 21 19 18 18 16 15 15 14 14 13 11 12 12 13 15 15 12 12 10 10 11 12 10 11 11 11 13 13 14 16 16 17 17 18 20 23 25 26 26 28 29 31
16 16 17 15 14 15 13 12 12 12 12 11 11 12 11 12 12 12 13 12 8 8 8 8 8 8 9 9 11 12 13 14 15 16 16 18 22 24 24 25 24 25 26
15 15 15 14 13 12 14 13 12 13 12 12 12 11 11 11 10 9 9 10 9 6 6 6 6 6 6 6 6 7 10 11 11 14 14 15 16 20 22 24 24 24 22
14 14 14 13 13 11 9 10 13 12 12 10 10 10 11 9 8 6 6 5 4 3 4 5 5 5 4 2 2 3 5 7 9 11 12 13 14 16 18 21 22 22 22
13 13 14 12 11 10 9 8 7 8 10 10 8 8 8 7 7 6 5 4 4 3 3 3 3 2 1 -1 -2 -1 0 2 5 8 10 11 12 13 15 15 18 20 20
14 13 13 12 11 10 10 9 9 7 7 8 9 8 7 7 7 7 5 3 3 3 1 1 1 0 -1 -2 -2 -2 -0 1 3 5 7 9 10 12 13 12 12 17 18
12 12 12 11 11 10 10 10 9 8 8 8 8 8 9 7 7 7 7 5 3 2 2 1 1 0 -0 -0 1 1 1 1 2 3 5 7 9 10 11 11 11 12 15
11 11 11 11 11 11 10 9 8 7 7 7 7 7 8 7 6 6 6 7 5 4 4 2 2 3 3 2 2 2 -1 -1 -0 0 3 5 7 9 10 10 10 10 9
13 12 11 9 9 9 8 6 5 5 4 4 5 5 5 6 6 6 5 6 5 6 6 5 4 4 4 3 3 3 1 -0 -1 -1 0 2 5 7 8 9 9 9 9
11 9 9 7 6 5 4 3 3 2 1 2 3 3 3 4 3 3 3 3 4 4 4 4 5 5 5 5 4 4 2 0 -0 0 -0 0 2 5 6 7 8 8 8
9 7 6 5 4 2 2 0 1 0 -0 -0 0 0 0 1 1 0 1 1 1 2 2 2 2 2 3 4 5 4 3 2 1 0 0 0 -1 2 4 5 6 6 6
7 7 4 3 2 1 0 -1 -2 -4 -4 -3 -2 -2 -2 -2 -2 -3 -3 -3 -3 -3 -2 -2 -0 -1 -1 0 3 3 4 4 2 -0 0 0 -0 -1 2 3 4 5 5
6 4 3 2 1 -1 -2 -3 -4 -4 -5 -4 -4 -4 -5 -5 -6 -6 -6 -7 -8 -7 -7 -7 -6 -6 -6 -4 -1 -0 1 2 1 -1 -0 0 -1 -1 0 2 3 4 4
3 2 1 0 -1 -3 -4 -5 -6 -7 -7 -6 -6 -6 -7 -7 -8 -8 -9 -10 -11 -10 -10 -9 -9 -9 -8 -7 -6 -3 -1 1 1 0 -0 0 -1 -1 -0 1 2 3 4

GFSGL_sfc_30mbdewp_126.txt.gz
Dewpoint
31 30 30 30 30 29 29 29 29 30 30 30 30 31 31 31 32 32 32 33 33 34 35 37 39 38 39 41 48 54 54 54 53 53 52 52 54 55 55 58 59 59 58
30 30 30 29 29 29 29 28 28 29 29 28 29 30 30 30 30 31 30 31 31 31 31 33 33 33 34 36 37 41 46 55 54 52 53 53 54 55 56 57 59 59 58
28 28 28 27 27 27 27 27 27 28 27 27 27 28 28 29 29 30 30 29 29 30 30 30 30 31 31 33 35 38 41 43 47 54 53 55 55 56 56 57 58 59 58
25 24 25 24 24 24 24 24 25 25 25 25 26 26 27 27 27 28 29 29 28 29 30 29 29 30 31 31 34 35 36 37 40 44 53 53 54 55 56 56 56 57 57
24 23 23 21 22 22 22 22 23 23 22 22 23 23 24 23 25 26 28 28 27 27 28 28 29 29 30 29 30 32 31 32 34 36 41 47 54 54 54 55 54 55 56
21 20 21 21 21 21 22 22 22 21 22 21 22 22 21 19 21 24 26 26 26 25 25 26 27 27 28 29 28 28 29 28 28 30 33 33 35 36 46 53 54 54 52
19 19 20 22 21 21 21 21 21 21 21 21 21 21 21 20 20 21 23 25 25 25 24 24 24 25 26 28 29 29 27 28 28 29 28 29 29 31 31 34 49 54 53
20 19 20 20 21 21 20 20 21 21 21 20 19 20 20 20 18 19 21 23 24 23 24 23 24 24 24 25 25 26 28 28 28 29 28 28 29 30 30 32 34 39 52
20 20 20 20 20 20 20 20 20 20 19 19 18 18 18 18 16 16 19 22 22 21 22 22 20 21 21 21 23 24 24 26 27 28 30 28 29 29 30 30 31 34 46
21 20 18 19 19 19 20 19 19 19 19 18 18 17 17 17 15 14 17 17 18 17 18 19 16 17 17 18 21 21 20 22 24 25 27 28 28 28 29 28 28 29 33
21 20 19 18 18 19 19 19 18 18 17 17 17 17 16 16 15 14 12 14 16 15 14 15 15 13 14 15 16 18 18 21 22 23 24 25 26 27 27 28 29 28 28
21 20 19 19 18 19 18 18 18 17 16 16 15 16 16 16 14 13 12 11 12 13 12 13 13 10 11 11 14 14 15 17 20 20 21 20 21 24 26 28 29 29 31
20 19 18 18 18 16 16 16 15 16 14 13 13 13 13 13 14 12 11 11 10 12 11 9 9 9 9 10 9 10 13 16 17 16 17 18 20 22 27 27 29 29 30
14 15 14 13 13 13 11 11 12 12 13 12 12 12 12 11 11 11 11 11 10 10 10 10 9 8 8 9 10 11 12 12 13 14 16 17 18 19 20 24 24 26 27
12 12 12 11 10 11 12 13 11 12 11 11 12 12 10 10 9 9 9 9 8 8 9 9 9 8 8 8 7 8 8 9 9 12 13 14 15 16 17 19 21 23 23
10 11 11 10 9 7 6 10 11 11 10 9 9 9 11 8 7 7 6 6 6 5 7 7 6 6 4 4 4 4 6 5 5 7 9 11 12 14 15 16 17 20 22
10 10 11 10 8 8 7 7 8 11 9 8 8 8 8 8 8 7 6 5 5 5 5 5 5 4 2 1 1 2 2 3 4 4 6 8 10 11 13 14 15 16 17
15 13 13 12 12 12 12 11 11 10 10 11 12 9 8 7 7 7 6 6 5 4 3 3 4 3 1 0 2 2 3 3 3 4 4 6 9 10 11 11 13 13 13
14 14 14 13 13 12 12 11 10 10 9 9 8 7 8 8 7 7 7 7 5 4 2 1 2 2 2 2 4 4 3 3 3 4 4 5 7 7 7 9 11 11 11
12 12 12 11 11 10 9 8 7 6 6 6 6 5 5 6 6 6 6 6 5 4 4 3 3 4 4 3 3 4 2 3 2 1 3 4 5 5 5 7 10 10 9
13 11 11 9 8 8 7 5 4 4 3 3 4 5 4 3 3 3 3 4 4 3 4 4 4 5 5 4 3 4 3 3 2 1 1 1 4 4 3 5 6 8 7
10 9 8 7 5 5 2 1 3 2 1 1 2 2 1 3 2 1 1 3 3 2 2 3 3 3 3 3 4 4 4 4 3 2 1 1 1 2 2 3 3 5 6
8 7 5 4 3 3 3 1 2 2 1 2 1 1 0 1 1 -0 0 1 -0 -0 0 -1 0 -0 -1 0 2 4 3 3 3 4 3 1 0 0 1 2 1 3 4
9 8 4 5 4 2 3 3 2 -1 -1 1 2 1 0 0 0 -1 -1 -2 -3 -3 -2 -3 -3 -4 -5 -4 -2 -0 -1 1 3 3 3 2 1 -1 0 -0 0 1 3
9 8 6 5 4 3 2 1 1 1 0 0 0 0 -2 -2 -2 -2 -3 -4 -6 -5 -5 -5 -5 -6 -6 -6 -5 -4 -4 -2 0 3 3 2 1 -1 -1 -1 -0 0 2
6 5 4 3 3 2 1 0 -0 -1 -1 -1 -1 -2 -2 -3 -4 -4 -5 -6 -8 -7 -7 -7 -6 -7 -7 -6 -7 -5 -4 -3 -1 0 3 3 2 -1 -1 -1 -1 -0 1

GFSGL_sfc_30mbdewp_129.txt.gz
Dewpoint
31 31 31 31 31 30 30 30 30 30 30 30 30 31 31 31 32 32 31 31 31 31 32 32 32 32 34 35 36 38 40 44 47 52 54 53 54 54 54 57 57 58 58
31 31 30 30 30 30 29 29 30 31 30 29 30 30 30 30 30 31 31 31 30 30 30 30 30 30 31 32 33 36 38 40 42 42 50 54 54 55 54 55 56 57 58
29 29 28 27 26 25 26 26 26 26 26 27 27 27 26 27 28 30 30 30 30 30 31 30 29 29 30 30 32 32 34 34 37 40 43 47 53 55 55 56 56 57 58
27 27 26 24 24 24 24 24 25 24 23 24 25 24 22 23 26 28 28 28 28 28 29 29 29 29 29 30 30 30 30 31 33 34 39 42 43 43 47 53 53 56 57
27 26 24 23 23 24 24 24 24 23 22 22 22 22 20 18 22 25 26 26 25 25 26 26 26 27 27 30 30 29 28 28 29 30 32 32 33 32 34 34 36 39 53
22 22 22 22 22 22 22 23 22 21 21 21 21 20 19 16 20 23 24 24 24 22 21 23 23 24 25 28 28 29 30 27 26 27 28 27 28 29 30 30 33 34 40
20 20 22 23 22 22 22 22 22 21 21 21 21 21 19 17 18 22 24 24 23 22 21 20 20 20 22 25 26 27 28 28 28 28 26 26 26 27 28 28 30 31 33
19 20 20 21 21 21 21 22 23 23 22 21 19 19 19 18 16 18 22 23 24 22 22 18 19 19 19 20 21 22 25 26 27 29 29 29 29 30 29 28 30 29 32
20 20 20 20 21 21 21 21 22 21 21 21 20 19 18 18 16 15 19 22 22 22 21 19 17 18 16 17 19 20 20 23 25 25 26 27 28 29 30 28 26 26 26
21 19 19 20 21 21 21 21 22 22 21 21 20 19 18 18 15 15 16 18 18 17 18 18 14 14 13 14 17 18 17 20 22 23 25 25 26 26 27 29 28 25 25
20 20 20 19 21 21 21 22 22 20 20 20 20 20 19 19 17 14 13 15 17 15 14 15 16 12 13 13 14 15 16 19 20 21 22 22 23 24 25 27 29 28 26
21 20 20 20 19 20 21 21 21 20 18 18 18 18 19 18 14 14 13 12 13 14 14 14 15 12 12 12 13 12 13 16 19 18 18 19 19 20 23 24 26 29 31
20 20 19 19 19 17 17 17 17 18 17 15 15 15 14 15 15 12 12 12 12 15 15 13 11 11 11 13 11 11 14 14 15 15 16 16 18 19 21 21 23 24 28
16 15 13 13 14 13 12 13 12 13 13 14 14 12 12 11 11 12 13 13 12 12 14 14 13 12 11 12 13 13 14 13 12 13 14 15 16 16 17 19 19 20 21
11 11 11 11 12 13 12 14 12 12 11 11 12 15 10 10 10 10 10 11 12 11 13 12 12 12 11 11 11 10 12 11 10 11 12 12 12 13 15 16 17 17 17
10 10 10 9 8 7 9 12 11 10 9 9 9 9 12 9 8 8 8 8 7 8 9 10 11 11 9 8 8 8 9 8 8 9 10 10 10 11 12 14 15 15 15
9 9 10 9 9 10 10 10 13 12 11 10 9 9 8 8 8 8 8 9 7 6 7 7 8 8 6 4 5 5 6 7 7 7 8 8 9 9 11 10 11 13 12
17 15 15 15 15 15 15 14 14 13 12 17 14 9 8 9 8 8 7 8 7 6 4 4 5 5 4 2 4 5 6 7 7 6 7 7 8 8 9 8 8 10 11
17 17 17 16 16 15 14 13 11 11 11 10 10 7 6 8 9 8 7 7 5 4 3 2 3 3 4 3 7 8 8 8 7 7 6 5 6 6 7 6 7 8 8
15 15 14 14 13 12 10 9 8 8 8 7 8 6 4 7 7 7 6 6 5 3 3 2 2 3 4 3 5 7 6 6 6 5 5 5 6 6 6 4 7 6 7
13 12 12 11 10 9 8 6 5 6 5 4 5 6 3 5 4 3 3 4 3 2 3 2 2 3 2 2 1 4 5 4 5 4 4 4 5 5 5 4 5 5 5
12 10 9 8 6 7 3 3 5 5 3 3 4 4 2 5 3 2 2 4 3 2 1 1 1 1 0 -1 -0 1 3 3 3 3 3 4 4 4 4 4 4 4 5
9 8 6 5 4 5 6 3 5 5 4 5 4 4 3 4 4 2 3 3 1 1 1 0 -0 -1 -2 -2 -1 -0 0 -2 -1 1 3 3 3 4 4 3 2 2 3
10 10 5 8 6 5 7 6 5 2 2 4 5 5 4 3 3 2 2 1 -0 -1 -0 -1 -1 -2 -3 -3 -2 -1 -3 -2 -2 -0 1 3 4 3 4 2 2 1 2
11 10 9 8 7 7 6 5 5 5 4 4 4 4 2 2 1 1 1 -1 -3 -3 -3 -3 -3 -3 -4 -4 -3 -4 -4 -4 -2 -1 1 1 3 5 3 2 0 2 1
10 7 8 7 7 6 5 5 4 3 3 3 3 3 2 1 -0 -1 -1 -4 -5 -5 -4 -4 -4 -5 -5 -4 -5 -5 -4 -4 -3 -1 1 2 5 3 4 -1 -1 3 1

GFSGL_sfc_30mbdewp_132.txt.gz
Dewpoint
32 32 31 31 31 31 30 30 31 31 31 31 31 30 30 30 32 33 32 32 31 31 32 31 30 32 32 32 33 36 36 37 37 39 42 46 49 53 55 57 58 57 58
31 31 30 30 29 29 29 28 29 28 28 28 28 27 27 27 29 31 31 31 31 31 32 29 29 30 31 31 32 31 32 34 34 35 39 41 45 47 42 45 55 56 57
29 29 28 27 26 26 26 27 26 26 26 27 25 24 22 25 26 28 29 29 28 28 29 28 27 28 29 30 30 29 30 31 33 33 35 36 38 35 36 39 38 40 42
29 28 27 26 25 26 26 26 25 24 23 24 23 21 20 21 24 26 27 26 25 25 26 27 25 25 27 30 29 28 28 28 29 30 30 31 31 31 32 32 32 34 36
28 26 25 24 25 25 25 25 25 24 23 23 22 20 18 18 23 25 25 23 22 21 21 22 21 22 23 27 29 29 27 27 27 27 27 27 27 27 27 29 30 31 34
23 24 24 23 23 24 24 24 23 22 22 22 22 20 18 17 21 24 25 24 23 21 19 20 18 19 20 22 23 26 28 26 25 26 26 25 26 27 27 28 28 29 29
22 22 23 23 23 23 23 24 23 22 22 22 21 21 19 18 19 22 24 25 23 22 18 18 17 17 18 20 20 21 23 24 26 28 25 25 25 27 28 27 27 27 28
21 21 21 22 23 23 23 24 24 24 23 22 21 20 20 18 16 19 22 23 23 21 20 16 17 17 16 17 18 18 19 22 23 25 25 26 28 28 28 27 27 27 27
21 21 21 23 23 23 23 23 24 24 23 22 22 21 18 18 16 16 18 21 20 19 19 17 15 16 15 16 15 16 15 18 21 21 21 21 22 23 24 25 24 24 24
21 22 22 23 23 22 23 23 24 24 23 24 22 20 18 17 15 15 15 18 17 16 16 17 15 14 14 14 15 15 13 16 19 19 19 19 20 20 22 23 24 23 24
22 21 21 22 23 23 23 24 23 23 22 22 23 20 18 16 15 14 14 15 18 16 15 15 16 13 13 13 14 13 13 15 16 17 16 16 17 17 20 21 22 23 23
21 22 22 21 21 23 24 24 23 22 20 20 20 19 17 16 13 13 13 13 14 17 16 16 15 12 11 12 12 11 11 13 13 13 13 13 14 14 18 19 20 21 22
22 21 21 21 20 20 19 19 19 20 19 18 17 16 15 14 14 12 12 12 13 16 15 12 11 11 11 13 10 11 11 10 11 11 11 11 12 13 15 16 16 18 18
19 19 19 17 16 16 15 14 14 15 15 17 16 14 13 13 13 14 14 14 14 14 16 15 14 13 12 12 11 11 11 10 9 10 9 10 10 10 11 14 12 15 14
15 14 14 15 13 14 16 14 12 13 12 12 15 15 12 11 11 10 12 13 12 12 14 13 12 11 10 10 9 9 10 9 7 8 8 8 7 8 9 11 10 12 11
13 13 13 12 15 13 11 12 12 12 11 11 10 10 12 9 9 9 11 11 9 9 11 11 10 9 8 8 7 8 8 8 7 7 7 6 6 6 8 7 7 9 9
12 11 12 12 11 12 14 15 14 13 12 11 11 9 9 9 9 8 9 9 8 8 8 8 8 8 7 6 6 7 7 7 8 6 6 6 5 5 7 5 5 7 6
19 16 17 18 18 18 17 16 15 17 15 15 10 9 9 11 10 8 8 9 8 7 6 6 6 6 5 5 5 6 6 6 7 6 5 5 4 5 6 4 3 5 4
20 20 21 20 19 17 16 15 13 13 12 14 13 8 7 11 9 8 8 9 7 6 5 4 5 6 6 5 4 5 5 4 4 4 3 3 3 4 5 4 3 3 2
19 18 18 17 16 14 13 11 11 10 10 12 10 6 7 10 8 8 9 8 6 5 5 4 4 5 5 3 2 2 2 3 3 2 1 1 3 3 3 4 3 2 1
16 15 14 14 13 12 11 9 8 9 7 9 9 4 4 7 6 6 6 6 5 4 5 4 3 4 3 0 0 1 2 1 -0 -1 -1 -0 2 1 2 4 3 1 1
14 13 13 11 10 9 6 8 9 7 6 6 7 5 4 8 6 5 5 6 5 4 4 3 2 2 2 -0 -0 0 1 -1 -2 -2 -2 -1 -0 1 2 3 2 1 -0
12 10 8 8 8 7 7 7 8 8 7 8 7 7 6 7 7 5 6 5 3 3 3 3 2 1 -0 -1 -1 2 -1 -2 -3 -2 -2 -2 -1 -0 2 4 1 1 -1
13 12 9 11 9 9 10 10 5 2 5 7 8 7 5 5 6 4 5 3 1 -0 0 0 1 -0 -1 -2 -1 -0 -3 -3 -2 -2 -2 -1 -1 -0 2 3 1 -2 -1
15 11 11 8 9 9 6 7 7 7 7 7 6 6 5 5 4 3 3 1 -2 -3 -2 -1 -1 -1 -2 -3 -1 -4 -4 -3 -3 -4 -1 -0 0 1 4 4 -1 -0 0
14 12 11 11 11 10 9 8 7 6 5 5 5 5 4 4 2 -0 1 -3 -5 -4 -3 -3 -2 -3 -3 -2 -3 -3 -4 -5 -5 -3 -1 0 1 2 4 1 0 0 1

GFSGL_sfc_30mbdewp_135.txt.gz
Dewpoint
31 32 31 30 31 30 29 29 31 29 29 30 26 26 26 28 29 34 31 31 30 32 29 28 29 30 31 32 32 32 32 32 32 33 36 39 38 35 34 40 41 42 43
31 31 31 29 29 28 29 27 27 26 28 25 23 22 24 26 27 30 29 28 27 28 27 25 25 27 29 30 31 30 30 32 31 31 33 33 32 31 32 34 35 36 37
32 28 27 26 26 26 26 26 26 25 25 22 21 20 22 25 26 27 25 24 23 24 25 22 23 24 27 29 29 28 28 29 31 30 29 30 29 29 30 31 31 32 33
30 27 26 27 26 26 26 25 24 24 24 21 20 19 20 23 26 27 24 23 19 21 22 20 20 22 24 26 27 26 26 26 27 28 27 27 27 28 29 28 28 30 31
28 26 26 25 26 26 25 24 23 23 23 21 19 19 19 22 26 25 23 22 17 16 18 18 18 19 20 22 24 25 25 24 25 24 23 23 24 24 26 27 28 28 30
26 25 25 25 25 25 25 24 23 22 22 22 19 19 18 20 25 24 23 22 18 15 15 17 16 18 17 18 20 22 25 24 23 23 22 22 23 24 25 26 25 26 26
25 25 25 24 24 24 24 23 23 22 21 20 20 19 18 18 22 24 24 22 21 18 17 16 16 17 17 16 16 17 19 22 24 23 21 21 21 24 24 23 24 25 25
23 24 24 24 23 24 24 24 23 22 21 20 18 18 18 17 18 20 21 20 18 17 18 17 17 17 16 15 15 14 15 18 20 20 20 20 21 23 22 22 22 23 24
22 23 24 23 22 22 22 22 23 22 20 20 18 16 15 17 16 16 18 19 16 16 17 17 16 16 15 14 14 13 13 14 17 16 16 16 16 19 19 19 19 19 18
22 23 23 23 21 20 21 22 23 23 22 19 18 17 15 14 16 15 15 18 17 16 16 16 14 14 14 14 13 11 11 12 13 13 13 13 13 14 17 18 18 17 18
24 23 23 22 22 23 23 22 22 22 24 19 16 15 14 14 14 14 14 15 17 17 15 14 15 12 12 13 11 10 10 11 12 11 10 10 11 12 14 16 15 17 16
22 22 22 23 24 24 22 23 23 20 20 18 15 13 13 12 13 13 13 14 15 17 13 13 13 10 10 11 11 9 8 10 11 8 8 8 8 9 12 13 13 15 15
22 21 21 22 23 21 19 18 18 19 18 16 15 12 11 12 12 13 12 11 14 15 13 11 10 10 10 12 9 9 10 8 9 7 7 7 8 9 11 10 9 11 12
21 21 20 20 19 16 15 15 15 15 17 14 13 11 10 10 11 12 13 11 12 13 12 11 11 11 9 9 9 10 10 9 7 8 7 6 6 7 9 7 7 8 8
21 19 17 17 17 15 12 12 12 13 14 16 13 10 8 9 11 12 15 11 12 13 10 9 8 7 7 7 8 7 8 9 7 7 6 6 4 6 7 6 5 6 5
15 15 16 13 14 13 14 14 13 13 13 11 11 10 10 11 10 11 12 10 8 8 7 7 6 6 6 6 6 6 7 6 7 6 4 5 4 4 5 5 4 4 3
15 16 18 16 12 13 13 13 12 14 13 13 10 10 11 10 10 10 10 9 7 7 6 5 6 5 6 5 4 4 5 5 5 4 3 3 3 3 3 5 3 3 2
15 16 16 17 17 17 16 15 13 13 13 12 10 10 12 13 11 9 8 7 6 6 6 5 6 6 5 3 2 2 3 4 3 2 1 1 2 2 2 3 4 2 1
19 19 18 17 16 15 15 14 15 15 14 12 4 4 8 11 10 8 7 6 5 6 5 4 5 4 3 1 1 1 2 2 0 -1 -2 -1 -1 1 1 2 3 2 1
19 17 17 15 15 15 14 12 11 12 13 7 1 4 6 8 6 6 5 4 5 5 5 3 4 4 1 0 -0 -1 1 -1 -2 -3 -3 -3 -2 -1 -0 1 2 1 0
17 17 16 17 15 11 10 10 9 9 11 4 1 3 7 6 6 6 5 4 3 4 4 2 3 2 -0 -1 -2 -2 0 -3 -4 -4 -4 -3 -3 -3 -1 1 1 2 0
14 15 14 12 12 10 10 10 8 7 9 7 4 5 6 5 5 6 4 2 1 2 4 0 2 2 -1 -3 -3 -2 -2 -5 -5 -4 -4 -4 -4 -3 -1 -1 1 1 -3
15 14 12 11 7 7 10 9 8 7 7 7 7 6 6 4 4 4 2 -0 -1 -2 -1 -1 0 -0 -1 -4 -3 -1 -3 -4 -4 -3 -5 -5 -4 -3 -2 -1 1 -2 -2
12 11 9 7 8 9 7 4 4 5 7 6 6 4 4 4 3 3 0 -3 -5 -5 -5 -2 -3 -2 -3 -4 -1 -3 -4 -4 -4 -5 -5 -5 -4 -2 -2 -1 2 -1 -0
12 11 9 8 10 9 9 8 4 4 6 5 5 4 3 2 0 0 -3 -6 -6 -7 -4 -4 -5 -2 -4 -4 -3 -5 -5 -6 -7 -7 -5 -4 -3 -3 -1 1 2 0 -0
12 11 9 9 10 7 8 7 6 5 5 4 3 2 2 -0 -2 -2 -5 -7 -7 -6 -5 -6 -5 -3 -5 -2 -4 -3 -7 -9 -8 -6 -4 -3 -3 -0 1 2 1 0 -0

GFSGL_sfc_30mbdewp_138.txt.gz
Dewpoint
32 32 32 32 30 30 29 30 29 27 26 22 22 25 26 28 30 30 30 29 30 27 27 27 27 29 31 31 30 30 30 32 30 32 33 31 30 29 30 32 33 35 35
32 32 30 30 29 28 27 26 27 24 23 23 21 23 25 27 28 26 24 24 24 24 21 22 23 25 26 29 28 28 28 30 30 29 29 29 28 28 29 30 31 31 32
32 27 27 27 26 26 26 25 25 22 20 20 20 22 24 27 27 25 20 22 22 21 20 21 21 23 24 26 26 26 26 27 27 26 25 26 25 25 27 28 29 29 31
28 27 27 26 26 26 25 24 24 23 20 19 20 20 24 26 25 23 18 16 17 19 19 20 19 20 22 24 23 24 23 25 24 23 22 22 22 23 24 25 25 26 31
28 27 26 26 26 25 24 23 23 23 19 19 19 19 23 26 24 23 18 16 15 16 17 17 19 17 19 20 22 23 23 22 21 21 19 19 20 21 21 23 23 24 29
26 26 26 25 25 24 23 22 21 21 21 20 19 19 22 23 25 22 21 18 17 16 15 17 17 16 16 17 19 20 21 20 19 18 17 16 18 20 19 21 21 22 23
26 25 25 25 24 23 23 21 20 19 19 19 19 20 20 23 21 20 17 18 17 18 18 17 16 16 15 14 14 15 17 18 18 18 16 17 17 20 18 18 19 19 20
25 25 24 24 24 23 22 21 20 18 16 16 17 17 18 19 19 16 15 17 17 17 18 16 17 17 14 12 11 12 13 15 15 15 16 17 18 18 17 17 17 17 18
24 24 24 23 23 23 21 21 21 19 17 16 16 15 16 17 16 17 18 17 15 15 17 17 16 16 13 11 11 11 10 11 12 11 12 12 13 14 14 14 13 13 13
23 24 23 22 21 21 21 20 20 18 17 16 14 14 15 15 16 16 17 16 15 15 15 16 13 14 13 12 10 10 9 10 10 8 8 9 10 11 12 12 12 12 12
24 23 23 22 21 21 21 22 22 18 14 12 12 12 12 14 15 15 16 15 14 13 13 14 13 12 12 11 10 9 8 9 8 7 6 6 7 8 11 9 10 12 11
22 22 22 23 23 23 22 23 22 19 14 11 10 10 11 11 14 14 14 15 14 12 11 12 11 10 10 10 10 9 8 8 7 5 4 4 5 7 9 7 8 9 9
23 22 22 24 24 22 21 21 20 17 15 12 11 10 10 11 11 15 14 15 14 11 12 12 10 9 9 9 8 8 9 7 6 5 5 4 5 7 8 6 6 7 6
21 22 23 19 18 17 17 18 18 17 15 13 10 9 9 10 11 13 11 12 11 9 8 7 9 8 6 6 6 8 7 7 6 4 4 4 4 5 6 6 4 4 3
20 21 20 16 14 14 14 14 15 16 13 10 9 9 9 9 12 15 12 10 9 8 6 5 4 4 4 5 5 5 5 5 4 4 3 3 3 3 3 6 4 3 2
20 18 18 15 9 11 13 14 14 15 14 13 12 10 10 11 12 13 11 10 9 8 6 4 4 3 3 3 3 3 4 4 3 2 0 1 1 2 2 3 4 2 1
18 17 17 15 14 14 14 15 15 15 13 12 11 12 11 12 11 11 11 9 7 6 5 4 4 3 2 1 1 1 2 2 -1 -1 -2 -1 -1 -0 1 1 2 2 0
18 18 15 14 14 15 15 14 14 13 13 10 11 13 15 14 10 9 8 6 5 5 5 5 4 2 1 -0 -1 -0 1 -1 -3 -3 -3 -3 -3 -1 -1 -0 1 1 0
19 19 18 17 16 15 15 13 13 12 11 4 3 8 12 13 10 8 7 4 4 4 3 4 3 1 -1 -1 -2 -2 -1 -3 -4 -6 -5 -4 -4 -3 -2 -1 -0 0 1
18 17 17 17 16 16 16 15 14 14 11 2 5 6 8 6 3 2 2 2 2 3 2 3 2 -1 -1 -2 -3 -4 -2 -5 -5 -5 -5 -5 -5 -4 -4 -2 -1 -1 -1
19 18 17 17 16 15 13 13 14 13 9 2 4 5 6 6 5 3 2 1 2 2 -1 2 1 -1 -2 -4 -2 -4 -4 -7 -6 -6 -6 -5 -6 -6 -3 -2 -2 -1 -1
17 17 17 15 13 12 12 11 12 11 6 4 7 6 6 6 5 3 1 -0 -0 2 1 0 1 -1 -3 -4 -3 -5 -5 -7 -7 -6 -7 -7 -6 -5 -4 -4 -3 -1 -0
17 15 14 12 11 11 10 9 9 10 8 5 7 6 4 4 3 2 -0 -3 -3 -4 -2 -2 -2 -2 -3 -5 -3 -4 -5 -6 -6 -6 -8 -8 -7 -6 -5 -4 -3 -1 -0
15 14 11 8 11 10 8 7 7 8 8 7 6 5 4 2 1 -1 -4 -6 -7 -7 -5 -5 -4 -2 -4 -5 -4 -4 -4 -5 -7 -8 -7 -9 -8 -5 -4 -4 -1 0 -0
13 12 10 9 9 8 6 5 6 7 7 5 4 4 2 1 -0 -3 -6 -8 -8 -6 -5 -6 -6 -4 -5 -5 -4 -5 -6 -9 -10 -9 -8 -7 -6 -5 -3 -0 0 -1 -1
12 10 8 9 9 8 8 5 3 6 6 5 3 2 1 -1 -1 -5 -8 -8 -7 -7 -6 -7 -6 -4 -5 -2 -4 -4 -7 -9 -10 -8 -7 -6 -6 -5 -3 -3 -2 -2 -1